Wetterdaten: Mittwoch, 09.02.2022
Datum Zeit Temp. Aussen Temp. o. S. Temp +5cm Feuchte Auss Luftdruck Regen Sonnenschein Regendauer Solar Windben Empfang
09.02.2022 00:00 9,1 C 8,3 C 5,0 C 91 % 1028,3 hPa 0,0 l/m 0 min 0 min 0 W/m 6,4 km/h (2 Bft) 72,09 %
09.02.2022 00:02 9,1 C 8,3 C 5,0 C 91 % 1028,3 hPa 0,0 l/m 0 min 0 min 0 W/m 3,2 km/h (1 Bft) 10,00 %
09.02.2022 00:04 9,1 C 8,3 C 5,0 C 91 % 1028,3 hPa 0,0 l/m 0 min 0 min 0 W/m 6,4 km/h (2 Bft) 95,24 %
09.02.2022 00:06 9,1 C 8,3 C 5,0 C 91 % 1028,2 hPa 0,0 l/m 0 min 0 min 0 W/m 16,1 km/h (3 Bft) 100,00 %
09.02.2022 00:08 9,1 C 8,3 C 5,0 C 91 % 1028,2 hPa 0,0 l/m 0 min 0 min 0 W/m 19,3 km/h (3 Bft) 100,00 %
09.02.2022 00:10 9,1 C 8,3 C 5,0 C 91 % 1028,2 hPa 0,0 l/m 0 min 0 min 0 W/m 16,1 km/h (3 Bft) 100,00 %
09.02.2022 00:12 9,1 C 8,3 C 5,0 C 92 % 1028,2 hPa 0,0 l/m 0 min 0 min 0 W/m 6,4 km/h (2 Bft) 100,00 %
09.02.2022 00:14 9,1 C 8,3 C 5,0 C 92 % 1028,2 hPa 0,0 l/m 0 min 0 min 0 W/m 6,4 km/h (2 Bft) 100,00 %
09.02.2022 00:16 9,0 C 8,3 C 5,0 C 92 % 1028,2 hPa 0,0 l/m 0 min 0 min 0 W/m 9,7 km/h (2 Bft) 100,00 %
09.02.2022 00:18 9,0 C 8,3 C 5,0 C 92 % 1028,2 hPa 0,0 l/m 0 min 0 min 0 W/m 9,7 km/h (2 Bft) 100,00 %
09.02.2022 00:20 9,0 C 8,3 C 5,0 C 92 % 1028,2 hPa 0,0 l/m 0 min 0 min 0 W/m 12,9 km/h (3 Bft) 100,00 %
09.02.2022 00:22 9,0 C 8,3 C 5,0 C 92 % 1028,2 hPa 0,0 l/m 0 min 0 min 0 W/m 9,7 km/h (2 Bft) 100,00 %
09.02.2022 00:24 9,0 C 8,3 C 5,0 C 92 % 1028,2 hPa 0,0 l/m 0 min 0 min 0 W/m 12,9 km/h (3 Bft) 100,00 %
09.02.2022 00:26 9,0 C 8,3 C 5,0 C 92 % 1028,2 hPa 0,0 l/m 0 min 0 min 0 W/m 6,4 km/h (2 Bft) 100,00 %
09.02.2022 00:28 9,0 C 8,3 C 5,0 C 92 % 1028,2 hPa 0,0 l/m 0 min 0 min 0 W/m 12,9 km/h (3 Bft) 100,00 %
09.02.2022 00:30 9,0 C 8,3 C 5,0 C 92 % 1028,2 hPa 0,0 l/m 0 min 0 min 0 W/m 16,1 km/h (3 Bft) 100,00 %
09.02.2022 00:32 9,0 C 8,3 C 5,0 C 92 % 1028,2 hPa 0,0 l/m 0 min 0 min 0 W/m 9,7 km/h (2 Bft) 100,00 %
09.02.2022 00:34 9,0 C 8,3 C 5,0 C 92 % 1028,3 hPa 0,0 l/m 0 min 0 min 0 W/m 16,1 km/h (3 Bft) 100,00 %
09.02.2022 00:36 9,0 C 8,3 C 5,0 C 92 % 1028,2 hPa 0,0 l/m 0 min 0 min 0 W/m 12,9 km/h (3 Bft) 100,00 %
09.02.2022 00:38 8,9 C 8,3 C 5,6 C 92 % 1028,2 hPa 0,0 l/m 0 min 0 min 0 W/m 12,9 km/h (3 Bft) 100,00 %
09.02.2022 00:40 8,9 C 8,3 C 5,6 C 92 % 1028,3 hPa 0,0 l/m 0 min 0 min 0 W/m 12,9 km/h (3 Bft) 100,00 %
09.02.2022 00:42 8,9 C 8,3 C 5,6 C 92 % 1028,3 hPa 0,0 l/m 0 min 0 min 0 W/m 12,9 km/h (3 Bft) 100,00 %
09.02.2022 00:44 8,9 C 8,3 C 5,6 C 92 % 1028,2 hPa 0,0 l/m 0 min 0 min 0 W/m 12,9 km/h (3 Bft) 100,00 %
09.02.2022 00:46 8,9 C 8,3 C 5,6 C 92 % 1028,2 hPa 0,0 l/m 0 min 0 min 0 W/m 22,5 km/h (4 Bft) 100,00 %
09.02.2022 00:48 8,9 C 8,3 C 5,6 C 92 % 1028,2 hPa 0,0 l/m 0 min 0 min 0 W/m 6,4 km/h (2 Bft) 97,87 %
09.02.2022 00:50 8,9 C 8,3 C 5,0 C 93 % 1028,3 hPa 0,0 l/m 0 min 0 min 0 W/m 12,9 km/h (3 Bft) 97,83 %
09.02.2022 00:52 8,9 C 8,3 C 5,0 C 92 % 1028,3 hPa 0,0 l/m 0 min 0 min 0 W/m 6,4 km/h (2 Bft) 97,87 %
09.02.2022 00:54 8,9 C 8,3 C 5,0 C 92 % 1028,2 hPa 0,0 l/m 0 min 0 min 0 W/m 12,9 km/h (3 Bft) 97,87 %
09.02.2022 00:56 8,9 C 8,3 C 5,0 C 92 % 1028,2 hPa 0,0 l/m 0 min 0 min 0 W/m 6,4 km/h (2 Bft) 97,87 %
09.02.2022 00:58 8,9 C 8,3 C 5,0 C 92 % 1028,2 hPa 0,0 l/m 0 min 0 min 0 W/m 12,9 km/h (3 Bft) 95,74 %
09.02.2022 01:00 8,9 C 8,3 C 5,0 C 92 % 1028,2 hPa 0,0 l/m 0 min 0 min 0 W/m 16,1 km/h (3 Bft) 95,74 %
09.02.2022 01:02 8,9 C 8,3 C 5,6 C 93 % 1028,2 hPa 0,0 l/m 0 min 0 min 0 W/m 12,9 km/h (3 Bft) 95,65 %
09.02.2022 01:04 8,9 C 8,3 C 5,6 C 93 % 1028,2 hPa 0,0 l/m 0 min 0 min 0 W/m 6,4 km/h (2 Bft) 97,87 %
09.02.2022 01:06 8,9 C 8,3 C 5,6 C 93 % 1028,2 hPa 0,0 l/m 0 min 0 min 0 W/m 6,4 km/h (2 Bft) 93,62 %
09.02.2022 01:08 8,9 C 8,3 C 5,6 C 93 % 1028,2 hPa 0,0 l/m 0 min 0 min 0 W/m 19,3 km/h (3 Bft) 95,74 %
09.02.2022 01:10 8,9 C 8,3 C 5,6 C 93 % 1028,2 hPa 0,0 l/m 0 min 0 min 0 W/m 16,1 km/h (3 Bft) 95,74 %
09.02.2022 01:12 8,9 C 8,3 C 5,6 C 92 % 1028,2 hPa 0,0 l/m 0 min 0 min 0 W/m 16,1 km/h (3 Bft) 95,74 %
09.02.2022 01:14 8,9 C 8,3 C 5,6 C 92 % 1028,1 hPa 0,0 l/m 0 min 0 min 0 W/m 12,9 km/h (3 Bft) 95,65 %
09.02.2022 01:16 8,9 C 8,3 C 5,6 C 92 % 1028,1 hPa 0,0 l/m 0 min 0 min 0 W/m 6,4 km/h (2 Bft) 95,74 %
09.02.2022 01:18 8,9 C 8,3 C 5,6 C 92 % 1028,1 hPa 0,0 l/m 0 min 0 min 0 W/m 12,9 km/h (3 Bft) 91,49 %
09.02.2022 01:20 8,8 C 8,3 C 5,6 C 92 % 1028,1 hPa 0,0 l/m 0 min 0 min 0 W/m 9,7 km/h (2 Bft) 93,62 %
09.02.2022 01:22 8,9 C 8,3 C 5,6 C 92 % 1028,2 hPa 0,0 l/m 0 min 0 min 0 W/m 6,4 km/h (2 Bft) 95,74 %
09.02.2022 01:24 8,8 C 8,3 C 5,6 C 92 % 1028,1 hPa 0,0 l/m 0 min 0 min 0 W/m 16,1 km/h (3 Bft) 95,74 %
09.02.2022 01:26 8,8 C 8,3 C 5,6 C 92 % 1028,1 hPa 0,0 l/m 0 min 0 min 0 W/m 19,3 km/h (3 Bft) 95,65 %
09.02.2022 01:28 8,9 C 8,3 C 5,6 C 92 % 1028,0 hPa 0,0 l/m 0 min 0 min 0 W/m 22,5 km/h (4 Bft) 93,62 %
09.02.2022 01:30 8,9 C 8,3 C 5,6 C 92 % 1028,1 hPa 0,0 l/m 0 min 0 min 0 W/m 9,7 km/h (2 Bft) 95,74 %
09.02.2022 01:32 8,9 C 8,3 C 5,6 C 92 % 1028,2 hPa 0,0 l/m 0 min 0 min 0 W/m 12,9 km/h (3 Bft) 95,74 %
09.02.2022 01:34 8,9 C 8,3 C 5,6 C 92 % 1028,1 hPa 0,0 l/m 0 min 0 min 0 W/m 16,1 km/h (3 Bft) 93,62 %
09.02.2022 01:36 8,9 C 8,3 C 5,6 C 92 % 1028,0 hPa 0,0 l/m 0 min 0 min 0 W/m 12,9 km/h (3 Bft) 95,74 %
09.02.2022 01:38 8,9 C 8,3 C 5,6 C 91 % 1028,0 hPa 0,0 l/m 0 min 0 min 0 W/m 9,7 km/h (2 Bft) 95,65 %
09.02.2022 01:40 8,9 C 8,3 C 5,6 C 91 % 1028,0 hPa 0,0 l/m 0 min 0 min 0 W/m 12,9 km/h (3 Bft) 97,87 %
09.02.2022 01:42 8,9 C 8,3 C 5,6 C 91 % 1028,1 hPa 0,0 l/m 0 min 0 min 0 W/m 12,9 km/h (3 Bft) 100,00 %
09.02.2022 01:44 8,9 C 8,3 C 5,6 C 91 % 1028,0 hPa 0,0 l/m 0 min 0 min 0 W/m 19,3 km/h (3 Bft) 93,62 %
09.02.2022 01:46 8,9 C 8,3 C 5,0 C 91 % 1027,9 hPa 0,0 l/m 0 min 0 min 0 W/m 22,5 km/h (4 Bft) 95,74 %
09.02.2022 01:48 8,9 C 8,3 C 5,0 C 91 % 1028,0 hPa 0,0 l/m 0 min 0 min 0 W/m 19,3 km/h (3 Bft) 97,87 %
09.02.2022 01:50 8,9 C 8,3 C 5,0 C 91 % 1027,9 hPa 0,0 l/m 0 min 0 min 0 W/m 12,9 km/h (3 Bft) 97,83 %
09.02.2022 01:52 8,9 C 8,3 C 5,0 C 91 % 1027,9 hPa 0,0 l/m 0 min 0 min 0 W/m 16,1 km/h (3 Bft) 95,74 %
09.02.2022 01:54 8,8 C 7,8 C 5,0 C 92 % 1027,9 hPa 0,0 l/m 0 min 0 min 0 W/m 12,9 km/h (3 Bft) 97,87 %
09.02.2022 01:56 8,8 C 7,8 C 5,0 C 92 % 1027,8 hPa 0,0 l/m 0 min 0 min 0 W/m 12,9 km/h (3 Bft) 97,87 %
09.02.2022 01:58 8,8 C 7,8 C 5,0 C 92 % 1027,9 hPa 0,0 l/m 0 min 0 min 0 W/m 9,7 km/h (2 Bft) 95,74 %
09.02.2022 02:00 8,8 C 7,8 C 5,0 C 92 % 1027,9 hPa 0,0 l/m 0 min 0 min 0 W/m 9,7 km/h (2 Bft) 97,87 %
09.02.2022 02:02 8,8 C 7,8 C 5,0 C 92 % 1027,8 hPa 0,0 l/m 0 min 0 min 0 W/m 6,4 km/h (2 Bft) 93,48 %
09.02.2022 02:04 8,8 C 7,8 C 5,0 C 92 % 1027,9 hPa 0,0 l/m 0 min 0 min 0 W/m 6,4 km/h (2 Bft) 97,87 %
09.02.2022 02:06 8,8 C 7,8 C 5,0 C 92 % 1027,9 hPa 0,0 l/m 0 min 0 min 0 W/m 6,4 km/h (2 Bft) 97,87 %
09.02.2022 02:08 8,7 C 7,8 C 5,0 C 92 % 1027,9 hPa 0,0 l/m 0 min 0 min 0 W/m 3,2 km/h (1 Bft) 97,87 %
09.02.2022 02:10 8,7 C 7,8 C 5,0 C 92 % 1027,9 hPa 0,0 l/m 0 min 0 min 0 W/m 3,2 km/h (1 Bft) 97,87 %
09.02.2022 02:12 8,7 C 7,8 C 5,0 C 92 % 1027,9 hPa 0,0 l/m 0 min 0 min 0 W/m 9,7 km/h (2 Bft) 97,87 %
09.02.2022 02:14 8,7 C 7,8 C 5,0 C 92 % 1027,9 hPa 0,0 l/m 0 min 0 min 0 W/m 6,4 km/h (2 Bft) 97,83 %
09.02.2022 02:16 8,6 C 7,8 C 5,0 C 92 % 1027,9 hPa 0,0 l/m 0 min 0 min 0 W/m 16,1 km/h (3 Bft) 95,74 %
09.02.2022 02:18 8,6 C 7,8 C 5,0 C 92 % 1027,9 hPa 0,0 l/m 0 min 0 min 0 W/m 12,9 km/h (3 Bft) 93,62 %
09.02.2022 02:20 8,6 C 7,8 C 5,0 C 92 % 1027,8 hPa 0,0 l/m 0 min 0 min 0 W/m 6,4 km/h (2 Bft) 97,87 %
09.02.2022 02:22 8,6 C 7,8 C 5,0 C 92 % 1027,8 hPa 0,0 l/m 0 min 0 min 0 W/m 19,3 km/h (3 Bft) 95,74 %
09.02.2022 02:24 8,6 C 7,8 C 5,0 C 92 % 1027,8 hPa 0,0 l/m 0 min 0 min 0 W/m 16,1 km/h (3 Bft) 97,83 %
09.02.2022 02:26 8,6 C 7,8 C 5,0 C 92 % 1027,8 hPa 0,0 l/m 0 min 0 min 0 W/m 16,1 km/h (3 Bft) 100,00 %
09.02.2022 02:28 8,6 C 7,8 C 5,0 C 92 % 1027,8 hPa 0,0 l/m 0 min 0 min 0 W/m 16,1 km/h (3 Bft) 100,00 %
09.02.2022 02:30 8,6 C 7,8 C 5,0 C 92 % 1027,8 hPa 0,0 l/m 0 min 0 min 0 W/m 19,3 km/h (3 Bft) 97,87 %
09.02.2022 02:32 8,6 C 7,8 C 5,0 C 92 % 1027,8 hPa 0,0 l/m 0 min 0 min 0 W/m 16,1 km/h (3 Bft) 97,87 %
09.02.2022 02:34 8,6 C 7,8 C 5,0 C 92 % 1027,7 hPa 0,0 l/m 0 min 0 min 0 W/m 12,9 km/h (3 Bft) 100,00 %
09.02.2022 02:36 8,6 C 7,8 C 5,0 C 92 % 1027,8 hPa 0,0 l/m 0 min 0 min 0 W/m 12,9 km/h (3 Bft) 100,00 %
09.02.2022 02:38 8,6 C 7,8 C 5,0 C 92 % 1027,8 hPa 0,0 l/m 0 min 0 min 0 W/m 19,3 km/h (3 Bft) 100,00 %
09.02.2022 02:40 8,6 C 7,8 C 5,0 C 93 % 1027,7 hPa 0,0 l/m 0 min 0 min 0 W/m 19,3 km/h (3 Bft) 100,00 %
09.02.2022 02:42 8,6 C 7,8 C 5,0 C 93 % 1027,8 hPa 0,0 l/m 0 min 0 min 0 W/m 22,5 km/h (4 Bft) 100,00 %
09.02.2022 02:44 8,7 C 7,8 C 5,0 C 93 % 1027,8 hPa 0,0 l/m 0 min 0 min 0 W/m 19,3 km/h (3 Bft) 100,00 %
09.02.2022 02:46 8,7 C 7,8 C 5,0 C 93 % 1027,7 hPa 0,0 l/m 0 min 0 min 0 W/m 19,3 km/h (3 Bft) 100,00 %
09.02.2022 02:48 8,7 C 7,8 C 5,0 C 93 % 1027,8 hPa 0,0 l/m 0 min 0 min 0 W/m 19,3 km/h (3 Bft) 100,00 %
09.02.2022 02:50 8,7 C 7,8 C 5,0 C 93 % 1027,7 hPa 0,0 l/m 0 min 0 min 0 W/m 19,3 km/h (3 Bft) 100,00 %
09.02.2022 02:52 8,7 C 7,8 C 5,0 C 93 % 1027,7 hPa 0,0 l/m 0 min 0 min 0 W/m 12,9 km/h (3 Bft) 97,87 %
09.02.2022 02:54 8,7 C 7,8 C 5,0 C 93 % 1027,6 hPa 0,0 l/m 0 min 0 min 0 W/m 22,5 km/h (4 Bft) 100,00 %
09.02.2022 02:56 8,7 C 7,8 C 5,0 C 93 % 1027,6 hPa 0,0 l/m 0 min 0 min 0 W/m 29,0 km/h (5 Bft) 97,87 %
09.02.2022 02:58 8,7 C 7,8 C 5,0 C 93 % 1027,6 hPa 0,0 l/m 0 min 0 min 0 W/m 19,3 km/h (3 Bft) 100,00 %
09.02.2022 03:00 8,7 C 7,8 C 5,0 C 93 % 1027,6 hPa 0,0 l/m 0 min 0 min 0 W/m 19,3 km/h (3 Bft) 97,83 %
09.02.2022 03:02 8,7 C 7,8 C 5,0 C 94 % 1027,6 hPa 0,0 l/m 0 min 0 min 0 W/m 12,9 km/h (3 Bft) 100,00 %
09.02.2022 03:04 8,7 C 7,8 C 5,0 C 94 % 1027,7 hPa 0,0 l/m 0 min 0 min 0 W/m 22,5 km/h (4 Bft) 97,87 %
09.02.2022 03:06 8,7 C 7,8 C 5,0 C 94 % 1027,7 hPa 0,0 l/m 0 min 0 min 0 W/m 16,1 km/h (3 Bft) 100,00 %
09.02.2022 03:08 8,7 C 7,8 C 5,0 C 94 % 1027,6 hPa 0,0 l/m 0 min 0 min 0 W/m 19,3 km/h (3 Bft) 97,87 %
09.02.2022 03:10 8,7 C 7,8 C 5,0 C 94 % 1027,6 hPa 0,0 l/m 0 min 0 min 0 W/m 19,3 km/h (3 Bft) 97,87 %
09.02.2022 03:12 8,7 C 7,8 C 5,0 C 94 % 1027,5 hPa 0,0 l/m 0 min 0 min 0 W/m 25,7 km/h (4 Bft) 95,65 %
09.02.2022 03:14 8,7 C 7,8 C 5,0 C 94 % 1027,6 hPa 0,0 l/m 0 min 0 min 0 W/m 25,7 km/h (4 Bft) 97,87 %
09.02.2022 03:16 8,7 C 7,8 C 5,0 C 94 % 1027,7 hPa 0,0 l/m 0 min 0 min 0 W/m 16,1 km/h (3 Bft) 97,87 %
09.02.2022 03:18 8,7 C 7,8 C 5,0 C 94 % 1027,6 hPa 0,0 l/m 0 min 0 min 0 W/m 16,1 km/h (3 Bft) 97,87 %
09.02.2022 03:20 8,7 C 7,8 C 5,0 C 94 % 1027,5 hPa 0,0 l/m 0 min 0 min 0 W/m 16,1 km/h (3 Bft) 97,87 %
09.02.2022 03:22 8,7 C 7,8 C 5,0 C 94 % 1027,5 hPa 0,0 l/m 0 min 0 min 0 W/m 12,9 km/h (3 Bft) 97,87 %
09.02.2022 03:24 8,7 C 7,8 C 5,0 C 94 % 1027,5 hPa 0,0 l/m 0 min 0 min 0 W/m 16,1 km/h (3 Bft) 95,65 %
09.02.2022 03:26 8,7 C 7,8 C 5,0 C 94 % 1027,5 hPa 0,0 l/m 0 min 0 min 0 W/m 19,3 km/h (3 Bft) 97,87 %
09.02.2022 03:28 8,7 C 7,8 C 5,0 C 94 % 1027,5 hPa 0,0 l/m 0 min 0 min 0 W/m 16,1 km/h (3 Bft) 97,87 %
09.02.2022 03:30 8,7 C 7,8 C 5,0 C 94 % 1027,5 hPa 0,0 l/m 0 min 0 min 0 W/m 19,3 km/h (3 Bft) 97,87 %
09.02.2022 03:32 8,7 C 7,8 C 5,0 C 94 % 1027,5 hPa 0,0 l/m 0 min 0 min 0 W/m 12,9 km/h (3 Bft) 93,62 %
09.02.2022 03:34 8,6 C 7,8 C 5,0 C 94 % 1027,4 hPa 0,0 l/m 0 min 0 min 0 W/m 12,9 km/h (3 Bft) 97,87 %
09.02.2022 03:36 8,6 C 7,8 C 5,0 C 94 % 1027,4 hPa 0,0 l/m 0 min 0 min 0 W/m 16,1 km/h (3 Bft) 97,83 %
09.02.2022 03:38 8,6 C 7,8 C 5,0 C 94 % 1027,3 hPa 0,0 l/m 0 min 0 min 0 W/m 12,9 km/h (3 Bft) 100,00 %
09.02.2022 03:40 8,6 C 7,8 C 5,0 C 94 % 1027,3 hPa 0,0 l/m 0 min 0 min 0 W/m 16,1 km/h (3 Bft) 100,00 %
09.02.2022 03:42 8,6 C 7,8 C 5,0 C 95 % 1027,3 hPa 0,0 l/m 0 min 0 min 0 W/m 9,7 km/h (2 Bft) 95,74 %
09.02.2022 03:44 8,6 C 7,8 C 5,0 C 95 % 1027,3 hPa 0,0 l/m 0 min 0 min 0 W/m 22,5 km/h (4 Bft) 97,87 %
09.02.2022 03:46 8,6 C 7,8 C 5,0 C 95 % 1027,3 hPa 0,0 l/m 0 min 0 min 0 W/m 12,9 km/h (3 Bft) 95,74 %
09.02.2022 03:48 8,6 C 7,8 C 5,0 C 95 % 1027,3 hPa 0,0 l/m 0 min 0 min 0 W/m 12,9 km/h (3 Bft) 97,83 %
09.02.2022 03:50 8,6 C 7,8 C 5,0 C 94 % 1027,3 hPa 0,0 l/m 0 min 0 min 0 W/m 16,1 km/h (3 Bft) 97,87 %
09.02.2022 03:52 8,6 C 7,8 C 5,0 C 95 % 1027,3 hPa 0,0 l/m 0 min 0 min 0 W/m 16,1 km/h (3 Bft) 97,87 %
09.02.2022 03:54 8,6 C 7,8 C 5,0 C 94 % 1027,4 hPa 0,0 l/m 0 min 0 min 0 W/m 12,9 km/h (3 Bft) 95,74 %
09.02.2022 03:56 8,6 C 7,8 C 5,0 C 95 % 1027,4 hPa 0,0 l/m 0 min 0 min 0 W/m 16,1 km/h (3 Bft) 97,87 %
09.02.2022 03:58 8,6 C 7,8 C 5,0 C 95 % 1027,4 hPa 0,0 l/m 0 min 0 min 0 W/m 19,3 km/h (3 Bft) 97,87 %
09.02.2022 04:00 8,6 C 7,8 C 5,0 C 95 % 1027,3 hPa 0,0 l/m 0 min 0 min 0 W/m 19,3 km/h (3 Bft) 97,83 %
09.02.2022 04:02 8,6 C 7,8 C 5,0 C 95 % 1027,3 hPa 0,0 l/m 0 min 0 min 0 W/m 16,1 km/h (3 Bft) 96,88 %
09.02.2022 04:04 8,6 C 7,8 C 5,0 C 95 % 1027,3 hPa 0,0 l/m 0 min 0 min 0 W/m 19,3 km/h (3 Bft) 91,67 %
09.02.2022 04:06 8,6 C 7,8 C 5,0 C 95 % 1027,3 hPa 0,0 l/m 0 min 0 min 0 W/m 25,7 km/h (4 Bft) 95,74 %
09.02.2022 04:08 8,6 C 7,8 C 5,0 C 95 % 1027,3 hPa 0,0 l/m 0 min 0 min 0 W/m 22,5 km/h (4 Bft) 95,74 %
09.02.2022 04:10 8,6 C 7,8 C 5,0 C 95 % 1027,2 hPa 0,0 l/m 0 min 0 min 0 W/m 12,9 km/h (3 Bft) 97,87 %
09.02.2022 04:12 8,6 C 7,8 C 5,0 C 95 % 1027,2 hPa 0,0 l/m 0 min 0 min 0 W/m 19,3 km/h (3 Bft) 95,65 %
09.02.2022 04:14 8,6 C 7,8 C 5,0 C 95 % 1027,1 hPa 0,0 l/m 0 min 0 min 0 W/m 22,5 km/h (4 Bft) 95,74 %
09.02.2022 04:16 8,6 C 7,8 C 5,0 C 95 % 1027,2 hPa 0,0 l/m 0 min 0 min 0 W/m 25,7 km/h (4 Bft) 97,87 %
09.02.2022 04:18 8,6 C 7,8 C 5,0 C 95 % 1027,2 hPa 0,0 l/m 0 min 0 min 0 W/m 19,3 km/h (3 Bft) 95,74 %
09.02.2022 04:20 8,6 C 7,8 C 5,0 C 95 % 1027,2 hPa 0,0 l/m 0 min 0 min 0 W/m 22,5 km/h (4 Bft) 97,87 %
09.02.2022 04:22 8,6 C 7,8 C 5,0 C 95 % 1027,2 hPa 0,0 l/m 0 min 0 min 0 W/m 19,3 km/h (3 Bft) 97,87 %
09.02.2022 04:24 8,6 C 7,8 C 5,0 C 95 % 1027,2 hPa 0,0 l/m 0 min 0 min 0 W/m 12,9 km/h (3 Bft) 93,48 %
09.02.2022 04:26 8,6 C 7,8 C 5,0 C 95 % 1027,3 hPa 0,0 l/m 0 min 0 min 0 W/m 22,5 km/h (4 Bft) 95,74 %
09.02.2022 04:28 8,6 C 7,8 C 5,0 C 95 % 1027,3 hPa 0,0 l/m 0 min 0 min 0 W/m 16,1 km/h (3 Bft) 95,74 %
09.02.2022 04:30 8,6 C 7,8 C 5,0 C 95 % 1027,2 hPa 0,0 l/m 0 min 0 min 0 W/m 22,5 km/h (4 Bft) 95,74 %
09.02.2022 04:32 8,6 C 7,8 C 5,0 C 95 % 1027,2 hPa 0,0 l/m 0 min 0 min 0 W/m 19,3 km/h (3 Bft) 95,74 %
09.02.2022 04:34 8,6 C 7,8 C 5,0 C 94 % 1027,1 hPa 0,0 l/m 0 min 0 min 0 W/m 16,1 km/h (3 Bft) 95,74 %
09.02.2022 04:36 8,6 C 7,8 C 5,0 C 94 % 1027,1 hPa 0,0 l/m 0 min 0 min 0 W/m 19,3 km/h (3 Bft) 97,83 %
09.02.2022 04:38 8,6 C 7,8 C 5,0 C 94 % 1027,1 hPa 0,0 l/m 0 min 0 min 0 W/m 22,5 km/h (4 Bft) 91,49 %
09.02.2022 04:40 8,6 C 7,8 C 5,0 C 94 % 1027,1 hPa 0,0 l/m 0 min 0 min 0 W/m 19,3 km/h (3 Bft) 97,87 %
09.02.2022 04:42 8,6 C 7,8 C 5,0 C 94 % 1027,1 hPa 0,0 l/m 0 min 0 min 0 W/m 19,3 km/h (3 Bft) 97,87 %
09.02.2022 04:44 8,6 C 7,8 C 5,0 C 94 % 1027,0 hPa 0,0 l/m 0 min 0 min 0 W/m 16,1 km/h (3 Bft) 95,74 %
09.02.2022 04:46 8,6 C 7,8 C 5,0 C 94 % 1027,0 hPa 0,0 l/m 0 min 0 min 0 W/m 12,9 km/h (3 Bft) 97,83 %
09.02.2022 04:48 8,6 C 7,8 C 5,0 C 95 % 1027,1 hPa 0,0 l/m 0 min 0 min 0 W/m 22,5 km/h (4 Bft) 97,87 %
09.02.2022 04:50 8,5 C 7,8 C 5,0 C 95 % 1027,1 hPa 0,0 l/m 0 min 0 min 0 W/m 16,1 km/h (3 Bft) 97,87 %
09.02.2022 04:52 8,5 C 7,8 C 5,0 C 95 % 1027,0 hPa 0,0 l/m 0 min 0 min 0 W/m 16,1 km/h (3 Bft) 97,87 %
09.02.2022 04:54 8,4 C 7,8 C 5,0 C 95 % 1027,0 hPa 0,0 l/m 0 min 0 min 0 W/m 19,3 km/h (3 Bft) 95,74 %
09.02.2022 04:56 8,4 C 7,8 C 5,0 C 95 % 1027,0 hPa 0,0 l/m 0 min 0 min 0 W/m 12,9 km/h (3 Bft) 95,74 %
09.02.2022 04:58 8,4 C 7,8 C 5,0 C 95 % 1027,0 hPa 0,0 l/m 0 min 0 min 0 W/m 16,1 km/h (3 Bft) 97,83 %
09.02.2022 05:00 8,4 C 7,8 C 5,0 C 95 % 1027,0 hPa 0,0 l/m 0 min 0 min 0 W/m 16,1 km/h (3 Bft) 95,74 %
09.02.2022 05:02 8,4 C 7,8 C 5,0 C 95 % 1027,0 hPa 0,0 l/m 0 min 0 min 0 W/m 16,1 km/h (3 Bft) 91,49 %
09.02.2022 05:04 8,4 C 7,8 C 5,0 C 95 % 1027,0 hPa 0,0 l/m 0 min 0 min 0 W/m 16,1 km/h (3 Bft) 93,62 %
09.02.2022 05:06 8,4 C 7,8 C 5,0 C 95 % 1026,9 hPa 0,0 l/m 0 min 0 min 0 W/m 16,1 km/h (3 Bft) 95,74 %
09.02.2022 05:08 8,4 C 7,8 C 5,0 C 95 % 1026,9 hPa 0,0 l/m 0 min 0 min 0 W/m 9,7 km/h (2 Bft) 97,87 %
09.02.2022 05:10 8,4 C 7,8 C 5,0 C 95 % 1026,9 hPa 0,0 l/m 0 min 0 min 0 W/m 16,1 km/h (3 Bft) 100,00 %
09.02.2022 05:12 8,4 C 7,8 C 5,0 C 95 % 1027,0 hPa 0,0 l/m 0 min 0 min 0 W/m 16,1 km/h (3 Bft) 97,87 %
09.02.2022 05:14 8,3 C 7,8 C 5,0 C 95 % 1027,0 hPa 0,0 l/m 0 min 0 min 0 W/m 16,1 km/h (3 Bft) 97,87 %
09.02.2022 05:16 8,3 C 7,8 C 5,0 C 95 % 1026,9 hPa 0,0 l/m 0 min 0 min 0 W/m 9,7 km/h (2 Bft) 97,87 %
09.02.2022 05:18 8,3 C 7,8 C 5,0 C 95 % 1026,9 hPa 0,0 l/m 0 min 0 min 0 W/m 12,9 km/h (3 Bft) 97,87 %
09.02.2022 05:20 8,3 C 7,8 C 5,0 C 95 % 1026,9 hPa 0,0 l/m 0 min 0 min 0 W/m 12,9 km/h (3 Bft) 97,87 %
09.02.2022 05:22 8,3 C 7,8 C 5,0 C 95 % 1026,9 hPa 0,0 l/m 0 min 0 min 0 W/m 16,1 km/h (3 Bft) 97,83 %
09.02.2022 05:24 8,3 C 7,8 C 5,0 C 95 % 1026,8 hPa 0,0 l/m 0 min 0 min 0 W/m 22,5 km/h (4 Bft) 97,87 %
09.02.2022 05:26 8,3 C 7,8 C 5,0 C 95 % 1026,7 hPa 0,0 l/m 0 min 0 min 0 W/m 29,0 km/h (5 Bft) 97,87 %
09.02.2022 05:28 8,3 C 7,8 C 5,6 C 94 % 1026,8 hPa 0,0 l/m 0 min 0 min 0 W/m 19,3 km/h (3 Bft) 97,87 %
09.02.2022 05:30 8,4 C 7,8 C 5,6 C 94 % 1026,8 hPa 0,0 l/m 0 min 0 min 0 W/m 16,1 km/h (3 Bft) 95,74 %
09.02.2022 05:32 8,4 C 7,8 C 5,6 C 94 % 1026,8 hPa 0,0 l/m 0 min 0 min 0 W/m 16,1 km/h (3 Bft) 97,87 %
09.02.2022 05:34 8,4 C 7,8 C 5,6 C 94 % 1026,7 hPa 0,0 l/m 0 min 0 min 0 W/m 22,5 km/h (4 Bft) 97,83 %
09.02.2022 05:36 8,4 C 7,8 C 5,6 C 93 % 1026,7 hPa 0,0 l/m 0 min 0 min 0 W/m 12,9 km/h (3 Bft) 100,00 %
09.02.2022 05:38 8,4 C 7,8 C 5,6 C 93 % 1026,7 hPa 0,0 l/m 0 min 0 min 0 W/m 19,3 km/h (3 Bft) 100,00 %
09.02.2022 05:40 8,4 C 7,8 C 5,6 C 93 % 1026,8 hPa 0,0 l/m 0 min 0 min 0 W/m 12,9 km/h (3 Bft) 100,00 %
09.02.2022 05:42 8,5 C 7,8 C 5,6 C 92 % 1026,7 hPa 0,0 l/m 0 min 0 min 0 W/m 19,3 km/h (3 Bft) 100,00 %
09.02.2022 05:44 8,5 C 7,8 C 5,6 C 92 % 1026,8 hPa 0,0 l/m 0 min 0 min 0 W/m 16,1 km/h (3 Bft) 100,00 %
09.02.2022 05:46 8,6 C 8,3 C 5,6 C 92 % 1026,7 hPa 0,0 l/m 0 min 0 min 0 W/m 22,5 km/h (4 Bft) 100,00 %
09.02.2022 05:48 8,6 C 8,3 C 5,6 C 91 % 1026,7 hPa 0,0 l/m 0 min 0 min 0 W/m 22,5 km/h (4 Bft) 97,87 %
09.02.2022 05:50 8,6 C 7,8 C 5,6 C 91 % 1026,7 hPa 0,0 l/m 0 min 0 min 0 W/m 16,1 km/h (3 Bft) 100,00 %
09.02.2022 05:52 8,6 C 7,8 C 5,6 C 91 % 1026,7 hPa 0,0 l/m 0 min 0 min 0 W/m 32,2 km/h (5 Bft) 100,00 %
09.02.2022 05:54 8,6 C 7,8 C 5,6 C 90 % 1026,7 hPa 0,0 l/m 0 min 0 min 0 W/m 22,5 km/h (4 Bft) 100,00 %
09.02.2022 05:56 8,6 C 7,8 C 5,0 C 90 % 1026,7 hPa 0,0 l/m 0 min 0 min 0 W/m 16,1 km/h (3 Bft) 100,00 %
09.02.2022 05:58 8,6 C 7,8 C 5,0 C 90 % 1026,7 hPa 0,0 l/m 0 min 0 min 0 W/m 19,3 km/h (3 Bft) 100,00 %
09.02.2022 06:00 8,6 C 7,8 C 5,0 C 90 % 1026,7 hPa 0,0 l/m 0 min 0 min 0 W/m 19,3 km/h (3 Bft) 100,00 %
09.02.2022 06:02 8,6 C 7,8 C 5,0 C 90 % 1026,6 hPa 0,0 l/m 0 min 0 min 0 W/m 22,5 km/h (4 Bft) 100,00 %
09.02.2022 06:04 8,6 C 7,8 C 5,0 C 90 % 1026,7 hPa 0,0 l/m 0 min 0 min 0 W/m 19,3 km/h (3 Bft) 100,00 %
09.02.2022 06:06 8,6 C 7,8 C 5,0 C 90 % 1026,7 hPa 0,0 l/m 0 min 0 min 0 W/m 32,2 km/h (5 Bft) 100,00 %
09.02.2022 06:08 8,6 C 7,8 C 5,0 C 90 % 1026,8 hPa 0,0 l/m 0 min 0 min 0 W/m 22,5 km/h (4 Bft) 100,00 %
09.02.2022 06:10 8,6 C 7,8 C 5,0 C 90 % 1026,8 hPa 0,0 l/m 0 min 0 min 0 W/m 16,1 km/h (3 Bft) 100,00 %
09.02.2022 06:12 8,6 C 7,8 C 5,0 C 90 % 1026,8 hPa 0,0 l/m 0 min 0 min 0 W/m 6,4 km/h (2 Bft) 100,00 %
09.02.2022 06:14 8,6 C 7,8 C 5,0 C 90 % 1026,7 hPa 0,0 l/m 0 min 0 min 0 W/m 6,4 km/h (2 Bft) 100,00 %
09.02.2022 06:16 8,6 C 7,8 C 5,0 C 90 % 1026,7 hPa 0,0 l/m 0 min 0 min 0 W/m 16,1 km/h (3 Bft) 100,00 %
09.02.2022 06:18 8,6 C 7,8 C 5,0 C 90 % 1026,7 hPa 0,0 l/m 0 min 0 min 0 W/m 12,9 km/h (3 Bft) 100,00 %
09.02.2022 06:20 8,5 C 7,8 C 5,0 C 90 % 1026,6 hPa 0,0 l/m 0 min 0 min 0 W/m 12,9 km/h (3 Bft) 100,00 %
09.02.2022 06:22 8,5 C 7,8 C 5,0 C 90 % 1026,5 hPa 0,0 l/m 0 min 0 min 0 W/m 19,3 km/h (3 Bft) 97,83 %
09.02.2022 06:24 8,5 C 7,8 C 5,0 C 90 % 1026,5 hPa 0,0 l/m 0 min 0 min 0 W/m 12,9 km/h (3 Bft) 100,00 %
09.02.2022 06:26 8,5 C 7,8 C 5,0 C 90 % 1026,5 hPa 0,0 l/m 0 min 0 min 0 W/m 6,4 km/h (2 Bft) 97,87 %
09.02.2022 06:28 8,5 C 7,8 C 5,0 C 90 % 1026,4 hPa 0,0 l/m 0 min 0 min 0 W/m 3,2 km/h (1 Bft) 97,87 %
09.02.2022 06:30 8,5 C 7,8 C 5,0 C 90 % 1026,5 hPa 0,0 l/m 0 min 0 min 0 W/m 6,4 km/h (2 Bft) 100,00 %
09.02.2022 06:32 8,5 C 7,8 C 5,0 C 90 % 1026,5 hPa 0,0 l/m 0 min 0 min 0 W/m 6,4 km/h (2 Bft) 97,87 %
09.02.2022 06:34 8,5 C 7,8 C 5,0 C 90 % 1026,5 hPa 0,0 l/m 0 min 0 min 0 W/m 12,9 km/h (3 Bft) 97,83 %
09.02.2022 06:38 8,5 C 7,8 C 5,0 C 90 % 1026,5 hPa 0,0 l/m 0 min 0 min 0 W/m 9,7 km/h (2 Bft) 96,84 %
09.02.2022 06:40 8,6 C 7,8 C 5,0 C 90 % 1026,5 hPa 0,0 l/m 0 min 0 min 0 W/m 16,1 km/h (3 Bft) 97,50 %
09.02.2022 06:42 8,6 C 7,8 C 5,0 C 90 % 1026,5 hPa 0,0 l/m 0 min 0 min 0 W/m 12,9 km/h (3 Bft) 97,92 %
09.02.2022 06:44 8,6 C 7,8 C 5,0 C 90 % 1026,5 hPa 0,0 l/m 0 min 0 min 0 W/m 12,9 km/h (3 Bft) 95,74 %
09.02.2022 06:46 8,6 C 7,8 C 5,0 C 90 % 1026,6 hPa 0,0 l/m 0 min 0 min 0 W/m 12,9 km/h (3 Bft) 92,86 %
09.02.2022 06:48 8,6 C 7,8 C 5,0 C 90 % 1026,6 hPa 0,0 l/m 0 min 0 min 0 W/m 6,4 km/h (2 Bft) 97,87 %
09.02.2022 06:50 8,6 C 7,8 C 5,0 C 90 % 1026,7 hPa 0,0 l/m 0 min 0 min 0 W/m 9,7 km/h (2 Bft) 95,74 %
09.02.2022 06:52 8,6 C 7,8 C 5,0 C 90 % 1026,6 hPa 0,0 l/m 0 min 0 min 0 W/m 12,9 km/h (3 Bft) 95,74 %
09.02.2022 06:54 8,6 C 7,8 C 5,0 C 90 % 1026,7 hPa 0,0 l/m 0 min 0 min 0 W/m 9,7 km/h (2 Bft) 95,74 %
09.02.2022 06:56 8,6 C 7,8 C 5,0 C 90 % 1026,6 hPa 0,0 l/m 0 min 0 min 0 W/m 6,4 km/h (2 Bft) 98,18 %
09.02.2022 06:58 8,6 C 7,8 C 5,0 C 90 % 1026,6 hPa 0,0 l/m 0 min 0 min 0 W/m 6,4 km/h (2 Bft) 97,78 %
09.02.2022 07:00 8,6 C 7,8 C 5,0 C 90 % 1026,7 hPa 0,0 l/m 0 min 0 min 0 W/m 6,4 km/h (2 Bft) 95,74 %
09.02.2022 07:02 8,6 C 7,8 C 5,0 C 90 % 1026,6 hPa 0,0 l/m 0 min 0 min 0 W/m 19,3 km/h (3 Bft) 93,62 %
09.02.2022 07:04 8,6 C 7,8 C 5,0 C 90 % 1026,6 hPa 0,0 l/m 0 min 0 min 0 W/m 22,5 km/h (4 Bft) 93,62 %
09.02.2022 07:06 8,6 C 7,8 C 5,0 C 90 % 1026,5 hPa 0,0 l/m 0 min 0 min 0 W/m 19,3 km/h (3 Bft) 91,49 %
09.02.2022 07:08 8,6 C 7,8 C 5,0 C 90 % 1026,5 hPa 0,0 l/m 0 min 0 min 0 W/m 12,9 km/h (3 Bft) 93,62 %
09.02.2022 07:10 8,6 C 7,8 C 5,0 C 90 % 1026,5 hPa 0,0 l/m 0 min 0 min 0 W/m 9,7 km/h (2 Bft) 93,48 %
09.02.2022 07:12 8,6 C 7,8 C 5,0 C 90 % 1026,5 hPa 0,0 l/m 0 min 0 min 0 W/m 6,4 km/h (2 Bft) 93,62 %
09.02.2022 07:14 8,6 C 7,8 C 5,0 C 90 % 1026,5 hPa 0,0 l/m 0 min 0 min 0 W/m 9,7 km/h (2 Bft) 91,89 %
09.02.2022 07:16 8,6 C 7,8 C 5,0 C 90 % 1026,5 hPa 0,0 l/m 0 min 0 min 0 W/m 19,3 km/h (3 Bft) 93,62 %
09.02.2022 07:18 8,6 C 7,8 C 5,0 C 90 % 1026,5 hPa 0,0 l/m 0 min 0 min 0 W/m 16,1 km/h (3 Bft) 93,62 %
09.02.2022 07:22 8,6 C 7,8 C 5,0 C 90 % 1026,5 hPa 0,0 l/m 0 min 0 min 0 W/m 6,4 km/h (2 Bft) 91,23 %
09.02.2022 07:24 8,6 C 7,8 C 5,0 C 90 % 1026,6 hPa 0,0 l/m 0 min 0 min 0 W/m 12,9 km/h (3 Bft) 94,00 %
09.02.2022 07:26 8,6 C 7,8 C 5,0 C 90 % 1026,7 hPa 0,0 l/m 0 min 0 min 0 W/m 12,9 km/h (3 Bft) 95,74 %
09.02.2022 07:28 8,6 C 7,8 C 5,0 C 90 % 1026,7 hPa 0,0 l/m 0 min 0 min 0 W/m 16,1 km/h (3 Bft) 95,74 %
09.02.2022 07:30 8,6 C 7,8 C 5,0 C 90 % 1026,5 hPa 0,0 l/m 0 min 0 min 0 W/m 12,9 km/h (3 Bft) 91,43 %
09.02.2022 07:32 8,6 C 7,8 C 5,0 C 90 % 1026,6 hPa 0,0 l/m 0 min 0 min 0 W/m 16,1 km/h (3 Bft) 97,87 %
09.02.2022 07:34 8,7 C 7,8 C 5,0 C 90 % 1026,7 hPa 0,0 l/m 0 min 0 min 0 W/m 12,9 km/h (3 Bft) 96,55 %
09.02.2022 07:36 8,7 C 7,8 C 5,0 C 90 % 1026,7 hPa 0,0 l/m 0 min 0 min 0 W/m 9,7 km/h (2 Bft) 97,87 %
09.02.2022 07:38 8,7 C 7,8 C 5,0 C 90 % 1026,7 hPa 0,0 l/m 0 min 0 min 0 W/m 16,1 km/h (3 Bft) 97,14 %
09.02.2022 07:40 8,7 C 7,8 C 5,0 C 90 % 1026,7 hPa 0,0 l/m 0 min 0 min 0 W/m 12,9 km/h (3 Bft) 97,87 %
09.02.2022 07:42 8,7 C 7,8 C 5,0 C 90 % 1026,7 hPa 0,0 l/m 0 min 0 min 0 W/m 6,4 km/h (2 Bft) 97,87 %
09.02.2022 07:44 8,7 C 7,8 C 5,0 C 90 % 1026,7 hPa 0,0 l/m 0 min 0 min 0 W/m 6,4 km/h (2 Bft) 97,87 %
09.02.2022 07:46 8,7 C 7,8 C 5,0 C 90 % 1026,7 hPa 0,0 l/m 0 min 0 min 0 W/m 6,4 km/h (2 Bft) 97,87 %
09.02.2022 07:48 8,6 C 7,8 C 5,0 C 90 % 1026,7 hPa 0,0 l/m 0 min 0 min 0 W/m 9,7 km/h (2 Bft) 100,00 %
09.02.2022 07:50 8,6 C 7,8 C 5,0 C 90 % 1026,7 hPa 0,0 l/m 0 min 0 min 0 W/m 12,9 km/h (3 Bft) 100,00 %
09.02.2022 07:52 8,6 C 7,8 C 5,0 C 90 % 1026,7 hPa 0,0 l/m 0 min 0 min 0 W/m 12,9 km/h (3 Bft) 100,00 %
09.02.2022 07:54 8,6 C 7,8 C 5,0 C 90 % 1026,7 hPa 0,0 l/m 0 min 0 min 0 W/m 12,9 km/h (3 Bft) 96,30 %
09.02.2022 07:56 8,6 C 7,8 C 5,0 C 91 % 1026,7 hPa 0,0 l/m 0 min 0 min 0 W/m 22,5 km/h (4 Bft) 91,49 %
09.02.2022 07:58 8,6 C 7,8 C 5,0 C 91 % 1026,7 hPa 0,0 l/m 0 min 0 min 0 W/m 19,3 km/h (3 Bft) 97,62 %
09.02.2022 08:00 8,6 C 7,8 C 5,0 C 91 % 1026,7 hPa 0,0 l/m 0 min 0 min 0 W/m 12,9 km/h (3 Bft) 100,00 %
09.02.2022 08:02 8,6 C 7,8 C 5,0 C 91 % 1026,7 hPa 0,0 l/m 0 min 0 min 0 W/m 19,3 km/h (3 Bft) 100,00 %
09.02.2022 08:04 8,6 C 7,8 C 5,0 C 91 % 1026,7 hPa 0,0 l/m 0 min 0 min 0 W/m 6,4 km/h (2 Bft) 97,83 %
09.02.2022 08:06 8,6 C 7,8 C 5,0 C 91 % 1026,8 hPa 0,0 l/m 0 min 0 min 0 W/m 12,9 km/h (3 Bft) 100,00 %
09.02.2022 08:08 8,6 C 7,8 C 5,0 C 91 % 1026,7 hPa 0,0 l/m 0 min 0 min 0 W/m 16,1 km/h (3 Bft) 100,00 %
09.02.2022 08:10 8,5 C 7,8 C 5,0 C 92 % 1026,7 hPa 0,0 l/m 0 min 0 min 0 W/m 12,9 km/h (3 Bft) 100,00 %
09.02.2022 08:12 8,5 C 7,8 C 5,0 C 92 % 1026,7 hPa 0,0 l/m 0 min 0 min 0 W/m 19,3 km/h (3 Bft) 97,87 %
09.02.2022 08:14 8,4 C 7,8 C 5,0 C 92 % 1026,7 hPa 0,0 l/m 0 min 0 min 2 W/m 19,3 km/h (3 Bft) 100,00 %
09.02.2022 08:16 8,4 C 7,8 C 4,4 C 92 % 1026,6 hPa 0,0 l/m 0 min 0 min 5 W/m 16,1 km/h (3 Bft) 100,00 %
09.02.2022 08:18 8,4 C 7,8 C 4,4 C 92 % 1026,7 hPa 0,0 l/m 0 min 0 min 7 W/m 22,5 km/h (4 Bft) 100,00 %
09.02.2022 08:20 8,4 C 7,8 C 4,4 C 93 % 1026,7 hPa 0,0 l/m 0 min 0 min 8 W/m 19,3 km/h (3 Bft) 100,00 %
09.02.2022 08:22 8,3 C 7,8 C 4,4 C 93 % 1026,8 hPa 0,0 l/m 0 min 0 min 10 W/m 12,9 km/h (3 Bft) 100,00 %
09.02.2022 08:24 8,3 C 7,8 C 4,4 C 93 % 1026,8 hPa 0,0 l/m 0 min 0 min 9 W/m 19,3 km/h (3 Bft) 100,00 %
09.02.2022 08:26 8,3 C 7,8 C 4,4 C 93 % 1026,8 hPa 0,0 l/m 0 min 0 min 10 W/m 16,1 km/h (3 Bft) 97,87 %
09.02.2022 08:28 8,3 C 7,8 C 4,4 C 93 % 1026,7 hPa 0,0 l/m 0 min 0 min 12 W/m 12,9 km/h (3 Bft) 100,00 %
09.02.2022 08:30 8,3 C 7,8 C 5,0 C 93 % 1026,7 hPa 0,0 l/m 0 min 0 min 17 W/m 19,3 km/h (3 Bft) 97,87 %
09.02.2022 08:32 8,3 C 7,8 C 5,0 C 93 % 1026,8 hPa 0,0 l/m 0 min 0 min 17 W/m 19,3 km/h (3 Bft) 97,87 %
09.02.2022 08:34 8,3 C 7,8 C 5,0 C 94 % 1026,7 hPa 0,0 l/m 0 min 0 min 19 W/m 22,5 km/h (4 Bft) 100,00 %
09.02.2022 08:36 8,3 C 7,8 C 5,0 C 94 % 1026,7 hPa 0,0 l/m 0 min 0 min 23 W/m 25,7 km/h (4 Bft) 100,00 %
09.02.2022 08:38 8,3 C 7,8 C 5,0 C 94 % 1026,8 hPa 0,0 l/m 0 min 0 min 26 W/m 16,1 km/h (3 Bft) 100,00 %
09.02.2022 08:40 8,3 C 7,8 C 5,0 C 94 % 1026,8 hPa 0,0 l/m 0 min 0 min 27 W/m 19,3 km/h (3 Bft) 100,00 %
09.02.2022 08:42 8,3 C 7,8 C 5,0 C 94 % 1026,7 hPa 0,0 l/m 0 min 0 min 30 W/m 22,5 km/h (4 Bft) 100,00 %
09.02.2022 08:44 8,3 C 7,8 C 5,0 C 94 % 1026,8 hPa 0,0 l/m 0 min 0 min 32 W/m 19,3 km/h (3 Bft) 100,00 %
09.02.2022 08:46 8,3 C 7,8 C 5,0 C 94 % 1026,7 hPa 0,0 l/m 0 min 0 min 33 W/m 12,9 km/h (3 Bft) 100,00 %
09.02.2022 08:48 8,3 C 7,8 C 5,0 C 94 % 1026,7 hPa 0,0 l/m 0 min 0 min 33 W/m 16,1 km/h (3 Bft) 100,00 %
09.02.2022 08:50 8,3 C 7,8 C 5,0 C 94 % 1026,7 hPa 0,0 l/m 0 min 0 min 35 W/m 25,7 km/h (4 Bft) 100,00 %
09.02.2022 08:52 8,3 C 7,8 C 5,0 C 94 % 1026,6 hPa 0,0 l/m 0 min 0 min 38 W/m 19,3 km/h (3 Bft) 100,00 %
09.02.2022 08:54 8,3 C 7,8 C 5,0 C 94 % 1026,6 hPa 0,0 l/m 0 min 0 min 38 W/m 22,5 km/h (4 Bft) 100,00 %
09.02.2022 08:56 8,3 C 7,8 C 5,0 C 94 % 1026,6 hPa 0,0 l/m 0 min 0 min 37 W/m 25,7 km/h (4 Bft) 100,00 %
09.02.2022 08:58 8,3 C 7,8 C 5,0 C 94 % 1026,6 hPa 0,0 l/m 0 min 0 min 40 W/m 19,3 km/h (3 Bft) 97,87 %
09.02.2022 09:00 8,3 C 7,8 C 5,0 C 94 % 1026,7 hPa 0,0 l/m 0 min 0 min 44 W/m 35,4 km/h (5 Bft) 95,74 %
09.02.2022 09:02 8,4 C 8,3 C 5,6 C 94 % 1026,6 hPa 0,0 l/m 0 min 0 min 50 W/m 19,3 km/h (3 Bft) 95,74 %
09.02.2022 09:04 8,4 C 8,3 C 5,6 C 93 % 1026,5 hPa 0,0 l/m 0 min 0 min 53 W/m 19,3 km/h (3 Bft) 95,65 %
09.02.2022 09:06 8,4 C 8,3 C 5,6 C 93 % 1026,5 hPa 0,0 l/m 0 min 0 min 54 W/m 22,5 km/h (4 Bft) 97,87 %
09.02.2022 09:08 8,5 C 8,3 C 5,6 C 93 % 1026,5 hPa 0,0 l/m 0 min 0 min 54 W/m 29,0 km/h (5 Bft) 97,87 %
09.02.2022 09:10 8,5 C 8,3 C 5,6 C 93 % 1026,5 hPa 0,0 l/m 0 min 0 min 57 W/m 12,9 km/h (3 Bft) 97,87 %
09.02.2022 09:12 8,6 C 8,3 C 5,6 C 93 % 1026,5 hPa 0,0 l/m 0 min 0 min 57 W/m 16,1 km/h (3 Bft) 97,87 %
09.02.2022 09:14 8,6 C 8,3 C 5,6 C 93 % 1026,5 hPa 0,0 l/m 0 min 0 min 60 W/m 12,9 km/h (3 Bft) 95,74 %
09.02.2022 09:16 8,6 C 8,3 C 5,6 C 93 % 1026,5 hPa 0,0 l/m 0 min 0 min 59 W/m 12,9 km/h (3 Bft) 97,83 %
09.02.2022 09:18 8,6 C 8,3 C 5,6 C 93 % 1026,5 hPa 0,0 l/m 0 min 0 min 60 W/m 19,3 km/h (3 Bft) 97,87 %
09.02.2022 09:20 8,6 C 8,3 C 5,6 C 92 % 1026,4 hPa 0,0 l/m 0 min 0 min 64 W/m 25,7 km/h (4 Bft) 97,87 %
09.02.2022 09:22 8,7 C 8,3 C 5,6 C 92 % 1026,4 hPa 0,0 l/m 0 min 0 min 65 W/m 22,5 km/h (4 Bft) 95,74 %
09.02.2022 09:24 8,7 C 8,3 C 5,6 C 92 % 1026,5 hPa 0,0 l/m 0 min 0 min 66 W/m 19,3 km/h (3 Bft) 97,87 %
09.02.2022 09:26 8,7 C 8,3 C 5,6 C 92 % 1026,4 hPa 0,0 l/m 0 min 0 min 64 W/m 19,3 km/h (3 Bft) 95,74 %
09.02.2022 09:28 8,7 C 8,3 C 5,6 C 92 % 1026,5 hPa 0,0 l/m 0 min 0 min 60 W/m 22,5 km/h (4 Bft) 93,48 %
09.02.2022 09:30 8,8 C 8,3 C 5,6 C 92 % 1026,4 hPa 0,0 l/m 0 min 0 min 61 W/m 16,1 km/h (3 Bft) 95,74 %
09.02.2022 09:32 8,8 C 8,3 C 5,6 C 91 % 1026,5 hPa 0,0 l/m 0 min 0 min 68 W/m 35,4 km/h (5 Bft) 93,62 %
09.02.2022 09:34 8,8 C 8,3 C 5,6 C 91 % 1026,5 hPa 0,0 l/m 0 min 0 min 71 W/m 29,0 km/h (5 Bft) 55,32 %
09.02.2022 09:36 8,8 C 8,9 C 5,6 C 91 % 1026,5 hPa 0,0 l/m 0 min 0 min 74 W/m 16,1 km/h (3 Bft) 95,83 %
09.02.2022 09:38 8,8 C 8,9 C 5,6 C 90 % 1026,5 hPa 0,0 l/m 0 min 0 min 87 W/m 12,9 km/h (3 Bft) 95,74 %
09.02.2022 09:40 8,9 C 8,9 C 6,1 C 91 % 1026,5 hPa 0,0 l/m 0 min 0 min 80 W/m 16,1 km/h (3 Bft) 97,83 %
09.02.2022 09:42 8,9 C 8,9 C 6,1 C 90 % 1026,5 hPa 0,0 l/m 0 min 0 min 65 W/m 9,7 km/h (2 Bft) 97,87 %
09.02.2022 09:44 8,9 C 8,9 C 6,1 C 90 % 1026,5 hPa 0,0 l/m 0 min 0 min 72 W/m 25,7 km/h (4 Bft) 91,49 %
09.02.2022 09:46 8,9 C 8,9 C 6,1 C 90 % 1026,5 hPa 0,0 l/m 0 min 0 min 74 W/m 19,3 km/h (3 Bft) 95,74 %
09.02.2022 09:48 8,9 C 8,9 C 6,1 C 90 % 1026,5 hPa 0,0 l/m 0 min 0 min 67 W/m 19,3 km/h (3 Bft) 95,74 %
09.02.2022 09:50 9,0 C 8,9 C 6,1 C 90 % 1026,5 hPa 0,0 l/m 0 min 0 min 76 W/m 22,5 km/h (4 Bft) 95,74 %
09.02.2022 09:52 9,0 C 8,9 C 6,1 C 90 % 1026,5 hPa 0,0 l/m 0 min 0 min 76 W/m 19,3 km/h (3 Bft) 95,65 %
09.02.2022 09:54 9,0 C 8,9 C 6,1 C 90 % 1026,5 hPa 0,0 l/m 0 min 0 min 93 W/m 25,7 km/h (4 Bft) 95,74 %
09.02.2022 09:56 9,1 C 8,9 C 6,1 C 89 % 1026,5 hPa 0,0 l/m 0 min 0 min 88 W/m 22,5 km/h (4 Bft) 95,74 %
09.02.2022 09:58 9,1 C 8,9 C 6,1 C 90 % 1026,5 hPa 0,0 l/m 0 min 0 min 89 W/m 16,1 km/h (3 Bft) 95,74 %
09.02.2022 10:00 9,1 C 8,9 C 6,1 C 90 % 1026,4 hPa 0,0 l/m 2 min 0 min 137 W/m 9,7 km/h (2 Bft) 93,62 %
09.02.2022 10:02 9,1 C 8,9 C 6,1 C 90 % 1026,4 hPa 0,0 l/m 0 min 0 min 109 W/m 22,5 km/h (4 Bft) 93,62 %
09.02.2022 10:04 9,2 C 8,9 C 6,1 C 89 % 1026,3 hPa 0,0 l/m 0 min 0 min 80 W/m 25,7 km/h (4 Bft) 95,65 %
09.02.2022 10:06 9,2 C 8,9 C 6,1 C 89 % 1026,3 hPa 0,0 l/m 0 min 0 min 116 W/m 12,9 km/h (3 Bft) 93,62 %
09.02.2022 10:08 9,2 C 8,9 C 6,1 C 89 % 1026,4 hPa 0,0 l/m 0 min 0 min 101 W/m 16,1 km/h (3 Bft) 93,62 %
09.02.2022 10:10 9,2 C 8,9 C 6,1 C 89 % 1026,3 hPa 0,0 l/m 0 min 0 min 98 W/m 16,1 km/h (3 Bft) 95,74 %
09.02.2022 10:12 9,2 C 8,9 C 6,1 C 89 % 1026,3 hPa 0,0 l/m 0 min 0 min 89 W/m 19,3 km/h (3 Bft) 95,74 %
09.02.2022 10:14 9,2 C 8,9 C 6,1 C 89 % 1026,3 hPa 0,0 l/m 0 min 0 min 62 W/m 19,3 km/h (3 Bft) 97,87 %
09.02.2022 10:16 9,2 C 8,9 C 6,1 C 88 % 1026,3 hPa 0,0 l/m 0 min 0 min 57 W/m 16,1 km/h (3 Bft) 95,65 %
09.02.2022 10:18 9,2 C 8,9 C 6,1 C 89 % 1026,3 hPa 0,0 l/m 0 min 0 min 56 W/m 16,1 km/h (3 Bft) 97,87 %
09.02.2022 10:20 9,2 C 8,9 C 6,1 C 88 % 1026,3 hPa 0,0 l/m 0 min 0 min 57 W/m 19,3 km/h (3 Bft) 97,87 %
09.02.2022 10:22 9,2 C 8,9 C 6,1 C 88 % 1026,3 hPa 0,0 l/m 0 min 0 min 58 W/m 19,3 km/h (3 Bft) 97,87 %
09.02.2022 10:24 9,2 C 8,9 C 6,1 C 88 % 1026,3 hPa 0,0 l/m 0 min 0 min 60 W/m 16,1 km/h (3 Bft) 95,74 %
09.02.2022 10:26 9,3 C 8,9 C 6,1 C 88 % 1026,3 hPa 0,0 l/m 0 min 0 min 73 W/m 16,1 km/h (3 Bft) 97,83 %
09.02.2022 10:28 9,3 C 8,9 C 6,1 C 88 % 1026,3 hPa 0,0 l/m 0 min 0 min 88 W/m 22,5 km/h (4 Bft) 93,62 %
09.02.2022 10:30 9,3 C 8,9 C 6,1 C 88 % 1026,3 hPa 0,0 l/m 0 min 0 min 103 W/m 12,9 km/h (3 Bft) 97,87 %
09.02.2022 10:32 9,3 C 8,9 C 6,1 C 88 % 1026,3 hPa 0,0 l/m 0 min 0 min 135 W/m 22,5 km/h (4 Bft) 97,87 %
09.02.2022 10:34 9,3 C 8,9 C 6,1 C 88 % 1026,3 hPa 0,0 l/m 0 min 0 min 131 W/m 25,7 km/h (4 Bft) 97,87 %
09.02.2022 10:36 9,3 C 8,9 C 6,1 C 88 % 1026,3 hPa 0,0 l/m 0 min 0 min 131 W/m 22,5 km/h (4 Bft) 97,87 %
09.02.2022 10:38 9,3 C 8,9 C 6,1 C 88 % 1026,3 hPa 0,0 l/m 0 min 0 min 97 W/m 29,0 km/h (5 Bft) 97,87 %
09.02.2022 10:40 9,3 C 8,9 C 6,1 C 88 % 1026,3 hPa 0,0 l/m 0 min 0 min 79 W/m 22,5 km/h (4 Bft) 100,00 %
09.02.2022 10:42 9,3 C 8,9 C 6,1 C 88 % 1026,3 hPa 0,0 l/m 0 min 0 min 96 W/m 19,3 km/h (3 Bft) 100,00 %
09.02.2022 10:44 9,3 C 8,9 C 6,1 C 88 % 1026,3 hPa 0,0 l/m 0 min 0 min 112 W/m 29,0 km/h (5 Bft) 97,87 %
09.02.2022 10:46 9,3 C 8,9 C 6,1 C 88 % 1026,3 hPa 0,0 l/m 0 min 0 min 99 W/m 29,0 km/h (5 Bft) 100,00 %
09.02.2022 10:48 9,3 C 8,9 C 6,1 C 88 % 1026,3 hPa 0,0 l/m 0 min 0 min 90 W/m 25,7 km/h (4 Bft) 100,00 %
09.02.2022 10:50 9,3 C 8,9 C 6,1 C 88 % 1026,4 hPa 0,0 l/m 0 min 0 min 84 W/m 16,1 km/h (3 Bft) 100,00 %
09.02.2022 10:52 9,3 C 8,9 C 6,1 C 88 % 1026,3 hPa 0,0 l/m 0 min 0 min 82 W/m 38,6 km/h (5 Bft) 97,87 %
09.02.2022 10:54 9,3 C 8,9 C 6,1 C 88 % 1026,3 hPa 0,0 l/m 0 min 0 min 82 W/m 29,0 km/h (5 Bft) 100,00 %
09.02.2022 10:56 9,3 C 8,9 C 6,1 C 88 % 1026,3 hPa 0,0 l/m 0 min 0 min 91 W/m 35,4 km/h (5 Bft) 100,00 %
09.02.2022 10:58 9,3 C 8,9 C 6,1 C 88 % 1026,3 hPa 0,0 l/m 0 min 0 min 107 W/m 19,3 km/h (3 Bft) 100,00 %
09.02.2022 11:00 9,3 C 8,9 C 6,1 C 88 % 1026,3 hPa 0,0 l/m 0 min 0 min 146 W/m 19,3 km/h (3 Bft) 97,87 %
09.02.2022 11:02 9,3 C 9,4 C 6,1 C 88 % 1026,3 hPa 0,0 l/m 0 min 0 min 148 W/m 19,3 km/h (3 Bft) 95,74 %
09.02.2022 11:04 9,3 C 9,4 C 6,1 C 88 % 1026,3 hPa 0,0 l/m 0 min 0 min 122 W/m 29,0 km/h (5 Bft) 97,83 %
09.02.2022 11:06 9,3 C 9,4 C 6,1 C 88 % 1026,4 hPa 0,0 l/m 0 min 0 min 98 W/m 25,7 km/h (4 Bft) 95,74 %
09.02.2022 11:08 9,4 C 9,4 C 6,1 C 88 % 1026,3 hPa 0,0 l/m 0 min 0 min 98 W/m 22,5 km/h (4 Bft) 95,74 %
09.02.2022 11:10 9,4 C 8,9 C 6,1 C 88 % 1026,4 hPa 0,0 l/m 0 min 0 min 107 W/m 22,5 km/h (4 Bft) 97,87 %
09.02.2022 11:12 9,4 C 9,4 C 6,1 C 88 % 1026,5 hPa 0,0 l/m 0 min 0 min 140 W/m 12,9 km/h (3 Bft) 97,87 %
09.02.2022 11:14 9,4 C 9,4 C 6,1 C 88 % 1026,5 hPa 0,0 l/m 0 min 0 min 145 W/m 29,0 km/h (5 Bft) 97,83 %
09.02.2022 11:16 9,4 C 9,4 C 6,7 C 88 % 1026,5 hPa 0,0 l/m 0 min 0 min 132 W/m 16,1 km/h (3 Bft) 95,92 %
09.02.2022 11:18 9,4 C 9,4 C 6,7 C 88 % 1026,5 hPa 0,0 l/m 0 min 0 min 128 W/m 32,2 km/h (5 Bft) 95,65 %
09.02.2022 11:20 9,4 C 9,4 C 6,1 C 88 % 1026,5 hPa 0,0 l/m 0 min 0 min 135 W/m 32,2 km/h (5 Bft) 97,87 %
09.02.2022 11:22 9,4 C 9,4 C 6,1 C 88 % 1026,4 hPa 0,0 l/m 0 min 0 min 132 W/m 25,7 km/h (4 Bft) 97,87 %
09.02.2022 11:24 9,4 C 9,4 C 6,7 C 88 % 1026,4 hPa 0,0 l/m 0 min 0 min 124 W/m 19,3 km/h (3 Bft) 54,55 %
09.02.2022 11:26 9,4 C 9,4 C 6,1 C 88 % 1026,5 hPa 0,0 l/m 0 min 0 min 96 W/m 22,5 km/h (4 Bft) 97,87 %
09.02.2022 11:28 9,4 C 9,4 C 6,1 C 88 % 1026,5 hPa 0,0 l/m 0 min 0 min 99 W/m 22,5 km/h (4 Bft) 96,23 %
09.02.2022 11:30 9,5 C 9,4 C 6,1 C 88 % 1026,5 hPa 0,0 l/m 0 min 0 min 105 W/m 22,5 km/h (4 Bft) 97,87 %
09.02.2022 11:32 9,5 C 9,4 C 6,1 C 88 % 1026,5 hPa 0,0 l/m 0 min 0 min 108 W/m 19,3 km/h (3 Bft) 97,87 %
09.02.2022 11:34 9,5 C 9,4 C 6,1 C 88 % 1026,4 hPa 0,0 l/m 0 min 0 min 124 W/m 19,3 km/h (3 Bft) 97,87 %
09.02.2022 11:36 9,5 C 9,4 C 6,1 C 88 % 1026,5 hPa 0,0 l/m 0 min 0 min 162 W/m 22,5 km/h (4 Bft) 100,00 %
09.02.2022 11:38 9,5 C 9,4 C 6,7 C 88 % 1026,5 hPa 0,0 l/m 0 min 0 min 182 W/m 19,3 km/h (3 Bft) 100,00 %
09.02.2022 11:40 9,5 C 9,4 C 6,7 C 88 % 1026,4 hPa 0,0 l/m 0 min 0 min 163 W/m 22,5 km/h (4 Bft) 97,87 %
09.02.2022 11:42 9,6 C 9,4 C 6,7 C 88 % 1026,5 hPa 0,0 l/m 0 min 0 min 146 W/m 19,3 km/h (3 Bft) 97,30 %
09.02.2022 11:44 9,6 C 9,4 C 6,7 C 88 % 1026,5 hPa 0,0 l/m 0 min 0 min 148 W/m 29,0 km/h (5 Bft) 100,00 %
09.02.2022 11:46 9,6 C 9,4 C 6,7 C 88 % 1026,5 hPa 0,0 l/m 0 min 0 min 135 W/m 16,1 km/h (3 Bft) 100,00 %
09.02.2022 11:48 9,6 C 9,4 C 6,7 C 88 % 1026,5 hPa 0,0 l/m 0 min 0 min 139 W/m 19,3 km/h (3 Bft) 100,00 %
09.02.2022 11:50 9,6 C 9,4 C 6,7 C 88 % 1026,5 hPa 0,0 l/m 0 min 0 min 147 W/m 29,0 km/h (5 Bft) 100,00 %
09.02.2022 11:52 9,6 C 9,4 C 6,7 C 88 % 1026,5 hPa 0,0 l/m 0 min 0 min 158 W/m 25,7 km/h (4 Bft) 100,00 %
09.02.2022 11:54 9,7 C 9,4 C 6,7 C 88 % 1026,4 hPa 0,0 l/m 0 min 0 min 164 W/m 16,1 km/h (3 Bft) 100,00 %
09.02.2022 11:56 9,7 C 9,4 C 6,7 C 88 % 1026,5 hPa 0,0 l/m 0 min 0 min 155 W/m 25,7 km/h (4 Bft) 97,92 %
09.02.2022 11:58 9,7 C 10,0 C 6,7 C 88 % 1026,4 hPa 0,0 l/m 0 min 0 min 161 W/m 16,1 km/h (3 Bft) 100,00 %
09.02.2022 12:00 9,7 C 10,0 C 6,7 C 88 % 1026,4 hPa 0,0 l/m 0 min 0 min 189 W/m 32,2 km/h (5 Bft) 100,00 %
09.02.2022 12:02 9,7 C 10,0 C 6,7 C 87 % 1026,4 hPa 0,0 l/m 2 min 0 min 208 W/m 16,1 km/h (3 Bft) 97,83 %
09.02.2022 12:04 9,8 C 10,0 C 7,2 C 87 % 1026,4 hPa 0,0 l/m 2 min 0 min 209 W/m 22,5 km/h (4 Bft) 100,00 %
09.02.2022 12:06 9,8 C 10,0 C 7,2 C 87 % 1026,5 hPa 0,0 l/m 2 min 0 min 206 W/m 32,2 km/h (5 Bft) 100,00 %
09.02.2022 12:08 9,9 C 10,6 C 7,2 C 87 % 1026,4 hPa 0,0 l/m 0 min 0 min 193 W/m 12,9 km/h (3 Bft) 97,87 %
09.02.2022 12:10 9,9 C 10,6 C 7,2 C 87 % 1026,4 hPa 0,0 l/m 0 min 0 min 182 W/m 22,5 km/h (4 Bft) 97,87 %
09.02.2022 12:12 9,9 C 10,6 C 7,2 C 87 % 1026,4 hPa 0,0 l/m 0 min 0 min 197 W/m 19,3 km/h (3 Bft) 93,62 %
09.02.2022 12:14 10,0 C 10,6 C 7,2 C 86 % 1026,4 hPa 0,0 l/m 0 min 0 min 195 W/m 25,7 km/h (4 Bft) 93,48 %
09.02.2022 12:16 10,1 C 10,6 C 7,2 C 86 % 1026,3 hPa 0,0 l/m 2 min 0 min 209 W/m 25,7 km/h (4 Bft) 95,74 %
09.02.2022 12:18 10,1 C 10,6 C 7,2 C 86 % 1026,3 hPa 0,0 l/m 0 min 0 min 194 W/m 12,9 km/h (3 Bft) 95,74 %
09.02.2022 12:20 10,1 C 10,0 C 7,2 C 86 % 1026,2 hPa 0,0 l/m 0 min 0 min 175 W/m 29,0 km/h (5 Bft) 95,74 %
09.02.2022 12:22 10,1 C 10,0 C 7,2 C 86 % 1026,2 hPa 0,0 l/m 0 min 0 min 164 W/m 29,0 km/h (5 Bft) 97,87 %
09.02.2022 12:24 10,1 C 10,0 C 7,2 C 86 % 1026,2 hPa 0,0 l/m 0 min 0 min 170 W/m 22,5 km/h (4 Bft) 97,83 %
09.02.2022 12:26 10,1 C 10,0 C 7,2 C 86 % 1026,3 hPa 0,0 l/m 0 min 0 min 169 W/m 25,7 km/h (4 Bft) 97,87 %
09.02.2022 12:28 10,1 C 10,0 C 7,2 C 86 % 1026,2 hPa 0,0 l/m 0 min 0 min 154 W/m 16,1 km/h (3 Bft) 95,74 %
09.02.2022 12:30 10,1 C 10,0 C 7,2 C 87 % 1026,2 hPa 0,0 l/m 0 min 0 min 149 W/m 22,5 km/h (4 Bft) 97,87 %
09.02.2022 12:32 10,1 C 10,0 C 7,2 C 86 % 1026,2 hPa 0,0 l/m 0 min 0 min 193 W/m 25,7 km/h (4 Bft) 95,74 %
09.02.2022 12:34 10,1 C 10,0 C 7,2 C 86 % 1026,1 hPa 0,0 l/m 0 min 0 min 176 W/m 19,3 km/h (3 Bft) 97,87 %
09.02.2022 12:36 10,1 C 10,0 C 7,2 C 86 % 1026,2 hPa 0,0 l/m 0 min 0 min 161 W/m 19,3 km/h (3 Bft) 97,83 %
09.02.2022 12:38 10,1 C 10,0 C 7,2 C 87 % 1026,1 hPa 0,0 l/m 0 min 0 min 172 W/m 12,9 km/h (3 Bft) 95,74 %
09.02.2022 12:40 10,1 C 10,0 C 7,2 C 87 % 1026,1 hPa 0,0 l/m 0 min 0 min 155 W/m 16,1 km/h (3 Bft) 97,87 %
09.02.2022 12:42 10,1 C 10,0 C 7,2 C 86 % 1026,1 hPa 0,0 l/m 0 min 0 min 175 W/m 25,7 km/h (4 Bft) 95,74 %
09.02.2022 12:44 10,1 C 10,6 C 7,2 C 86 % 1026,1 hPa 0,0 l/m 0 min 0 min 202 W/m 25,7 km/h (4 Bft) 95,74 %
09.02.2022 12:46 10,1 C 10,6 C 7,2 C 86 % 1026,0 hPa 0,0 l/m 0 min 0 min 201 W/m 22,5 km/h (4 Bft) 97,87 %
09.02.2022 12:48 10,1 C 11,1 C 7,2 C 86 % 1026,0 hPa 0,0 l/m 2 min 0 min 223 W/m 25,7 km/h (4 Bft) 97,83 %
09.02.2022 12:50 10,2 C 12,2 C 7,2 C 86 % 1026,0 hPa 0,0 l/m 2 min 0 min 285 W/m 32,2 km/h (5 Bft) 97,87 %
09.02.2022 12:52 10,2 C 11,7 C 7,2 C 86 % 1026,0 hPa 0,0 l/m 2 min 0 min 261 W/m 35,4 km/h (5 Bft) 95,74 %
09.02.2022 12:54 10,3 C 11,7 C 7,2 C 85 % 1026,0 hPa 0,0 l/m 2 min 0 min 254 W/m 29,0 km/h (5 Bft) 93,62 %
09.02.2022 12:56 10,3 C 11,7 C 7,8 C 85 % 1026,0 hPa 0,0 l/m 2 min 0 min 258 W/m 22,5 km/h (4 Bft) 95,74 %
09.02.2022 12:58 10,4 C 11,7 C 7,8 C 85 % 1026,0 hPa 0,0 l/m 2 min 0 min 244 W/m 29,0 km/h (5 Bft) 97,87 %
09.02.2022 13:00 10,4 C 11,1 C 7,8 C 85 % 1026,0 hPa 0,0 l/m 0 min 0 min 177 W/m 22,5 km/h (4 Bft) 97,83 %
09.02.2022 13:02 10,5 C 10,6 C 7,2 C 85 % 1026,0 hPa 0,0 l/m 0 min 0 min 155 W/m 16,1 km/h (3 Bft) 97,87 %
09.02.2022 13:04 10,4 C 10,6 C 7,2 C 85 % 1026,0 hPa 0,0 l/m 0 min 0 min 127 W/m 16,1 km/h (3 Bft) 95,74 %
09.02.2022 13:06 10,4 C 10,6 C 7,2 C 85 % 1026,0 hPa 0,0 l/m 0 min 0 min 112 W/m 19,3 km/h (3 Bft) 93,62 %
09.02.2022 13:08 10,4 C 10,6 C 7,2 C 84 % 1026,0 hPa 0,0 l/m 0 min 0 min 145 W/m 16,1 km/h (3 Bft) 93,62 %
09.02.2022 13:10 10,4 C 10,6 C 7,2 C 84 % 1026,0 hPa 0,0 l/m 0 min 0 min 170 W/m 16,1 km/h (3 Bft) 95,74 %
09.02.2022 13:12 10,4 C 10,6 C 7,2 C 84 % 1025,9 hPa 0,0 l/m 0 min 0 min 169 W/m 12,9 km/h (3 Bft) 95,65 %
09.02.2022 13:14 10,4 C 10,6 C 7,2 C 84 % 1025,9 hPa 0,0 l/m 0 min 0 min 202 W/m 29,0 km/h (5 Bft) 95,74 %
09.02.2022 13:16 10,4 C 10,6 C 7,2 C 84 % 1025,9 hPa 0,0 l/m 0 min 0 min 176 W/m 16,1 km/h (3 Bft) 95,74 %
09.02.2022 13:18 10,4 C 10,6 C 7,2 C 84 % 1026,0 hPa 0,0 l/m 0 min 0 min 178 W/m 19,3 km/h (3 Bft) 93,62 %
09.02.2022 13:20 10,4 C 10,6 C 7,2 C 84 % 1025,8 hPa 0,0 l/m 0 min 0 min 165 W/m 16,1 km/h (3 Bft) 93,62 %
09.02.2022 13:22 10,5 C 10,6 C 7,2 C 84 % 1025,9 hPa 0,0 l/m 0 min 0 min 155 W/m 12,9 km/h (3 Bft) 95,74 %
09.02.2022 13:24 10,5 C 10,6 C 7,2 C 84 % 1025,8 hPa 0,0 l/m 0 min 0 min 150 W/m 16,1 km/h (3 Bft) 95,65 %
09.02.2022 13:26 10,5 C 10,6 C 7,2 C 84 % 1025,9 hPa 0,0 l/m 0 min 0 min 107 W/m 12,9 km/h (3 Bft) 91,49 %
09.02.2022 13:28 10,5 C 10,6 C 7,2 C 84 % 1025,8 hPa 0,0 l/m 0 min 0 min 95 W/m 9,7 km/h (2 Bft) 95,74 %
09.02.2022 13:30 10,5 C 10,6 C 7,2 C 84 % 1025,8 hPa 0,0 l/m 0 min 0 min 124 W/m 16,1 km/h (3 Bft) 95,74 %
09.02.2022 13:32 10,5 C 10,6 C 7,2 C 84 % 1025,8 hPa 0,0 l/m 0 min 0 min 147 W/m 32,2 km/h (5 Bft) 95,74 %
09.02.2022 13:34 10,5 C 10,6 C 7,2 C 83 % 1025,8 hPa 0,0 l/m 0 min 0 min 160 W/m 25,7 km/h (4 Bft) 93,62 %
09.02.2022 13:36 10,4 C 10,6 C 7,2 C 83 % 1025,8 hPa 0,0 l/m 0 min 0 min 139 W/m 19,3 km/h (3 Bft) 95,65 %
09.02.2022 13:38 10,4 C 10,0 C 7,2 C 83 % 1025,8 hPa 0,0 l/m 0 min 0 min 121 W/m 16,1 km/h (3 Bft) 97,87 %
09.02.2022 13:40 10,4 C 10,6 C 7,2 C 83 % 1025,8 hPa 0,0 l/m 0 min 0 min 139 W/m 25,7 km/h (4 Bft) 95,74 %
09.02.2022 13:42 10,4 C 10,6 C 7,2 C 84 % 1025,8 hPa 0,0 l/m 0 min 0 min 143 W/m 12,9 km/h (3 Bft) 95,92 %
09.02.2022 13:44 10,4 C 10,6 C 7,2 C 84 % 1025,7 hPa 0,0 l/m 0 min 0 min 123 W/m 16,1 km/h (3 Bft) 97,87 %
09.02.2022 13:46 10,4 C 10,6 C 7,2 C 84 % 1025,7 hPa 0,0 l/m 0 min 0 min 120 W/m 16,1 km/h (3 Bft) 97,87 %
09.02.2022 13:48 10,4 C 10,0 C 7,2 C 84 % 1025,7 hPa 0,0 l/m 0 min 0 min 101 W/m 9,7 km/h (2 Bft) 100,00 %
09.02.2022 13:50 10,4 C 10,0 C 7,2 C 84 % 1025,7 hPa 0,0 l/m 0 min 0 min 91 W/m 19,3 km/h (3 Bft) 100,00 %
09.02.2022 13:52 10,4 C 10,0 C 7,2 C 84 % 1025,8 hPa 0,0 l/m 0 min 0 min 85 W/m 16,1 km/h (3 Bft) 100,00 %
09.02.2022 13:54 10,4 C 10,0 C 7,2 C 84 % 1025,7 hPa 0,0 l/m 0 min 0 min 92 W/m 19,3 km/h (3 Bft) 97,87 %
09.02.2022 13:56 10,4 C 10,0 C 7,2 C 83 % 1025,7 hPa 0,0 l/m 0 min 0 min 120 W/m 16,1 km/h (3 Bft) 100,00 %
09.02.2022 13:58 10,4 C 10,6 C 7,2 C 84 % 1025,7 hPa 0,0 l/m 0 min 0 min 135 W/m 6,4 km/h (2 Bft) 100,00 %
09.02.2022 14:00 10,4 C 10,6 C 7,2 C 84 % 1025,7 hPa 0,0 l/m 0 min 0 min 133 W/m 9,7 km/h (2 Bft) 100,00 %
09.02.2022 14:02 10,5 C 10,6 C 7,2 C 84 % 1025,6 hPa 0,0 l/m 0 min 0 min 129 W/m 12,9 km/h (3 Bft) 100,00 %
09.02.2022 14:04 10,5 C 10,6 C 7,2 C 84 % 1025,7 hPa 0,0 l/m 0 min 0 min 131 W/m 9,7 km/h (2 Bft) 97,87 %
09.02.2022 14:06 10,5 C 10,6 C 7,2 C 84 % 1025,6 hPa 0,0 l/m 0 min 0 min 133 W/m 12,9 km/h (3 Bft) 100,00 %
09.02.2022 14:08 10,5 C 10,6 C 7,2 C 84 % 1025,6 hPa 0,0 l/m 0 min 0 min 123 W/m 12,9 km/h (3 Bft) 100,00 %
09.02.2022 14:10 10,6 C 10,6 C 7,2 C 84 % 1025,6 hPa 0,0 l/m 0 min 0 min 119 W/m 9,7 km/h (2 Bft) 100,00 %
09.02.2022 14:12 10,5 C 10,6 C 7,2 C 83 % 1025,5 hPa 0,0 l/m 0 min 0 min 129 W/m 19,3 km/h (3 Bft) 100,00 %
09.02.2022 14:14 10,6 C 10,6 C 7,2 C 83 % 1025,5 hPa 0,0 l/m 0 min 0 min 163 W/m 16,1 km/h (3 Bft) 100,00 %
09.02.2022 14:16 10,6 C 10,6 C 7,2 C 83 % 1025,5 hPa 0,0 l/m 2 min 0 min 201 W/m 22,5 km/h (4 Bft) 100,00 %
09.02.2022 14:18 10,6 C 11,1 C 7,2 C 83 % 1025,5 hPa 0,0 l/m 2 min 0 min 224 W/m 16,1 km/h (3 Bft) 100,00 %
09.02.2022 14:20 10,6 C 11,7 C 7,2 C 83 % 1025,5 hPa 0,0 l/m 2 min 0 min 245 W/m 19,3 km/h (3 Bft) 100,00 %
09.02.2022 14:22 10,7 C 11,7 C 7,8 C 83 % 1025,4 hPa 0,0 l/m 2 min 0 min 230 W/m 22,5 km/h (4 Bft) 97,87 %
09.02.2022 14:24 10,7 C 11,7 C 7,8 C 83 % 1025,4 hPa 0,0 l/m 2 min 0 min 214 W/m 19,3 km/h (3 Bft) 100,00 %
09.02.2022 14:26 10,8 C 11,7 C 7,8 C 83 % 1025,4 hPa 0,0 l/m 2 min 0 min 195 W/m 12,9 km/h (3 Bft) 100,00 %
09.02.2022 14:28 10,8 C 11,7 C 7,8 C 83 % 1025,4 hPa 0,0 l/m 0 min 0 min 157 W/m 6,4 km/h (2 Bft) 100,00 %
09.02.2022 14:30 10,8 C 11,1 C 7,8 C 83 % 1025,3 hPa 0,0 l/m 0 min 0 min 149 W/m 12,9 km/h (3 Bft) 100,00 %
09.02.2022 14:32 10,8 C 11,1 C 7,8 C 82 % 1025,3 hPa 0,0 l/m 0 min 0 min 154 W/m 9,7 km/h (2 Bft) 100,00 %
09.02.2022 14:34 10,9 C 11,1 C 7,8 C 82 % 1025,3 hPa 0,0 l/m 0 min 0 min 168 W/m 9,7 km/h (2 Bft) 97,87 %
09.02.2022 14:36 10,9 C 11,1 C 7,8 C 82 % 1025,3 hPa 0,0 l/m 0 min 0 min 160 W/m 12,9 km/h (3 Bft) 100,00 %
09.02.2022 14:38 10,8 C 10,6 C 7,8 C 82 % 1025,2 hPa 0,0 l/m 0 min 0 min 138 W/m 25,7 km/h (4 Bft) 100,00 %
09.02.2022 14:40 10,8 C 10,6 C 7,2 C 81 % 1025,2 hPa 0,0 l/m 0 min 0 min 125 W/m 29,0 km/h (5 Bft) 100,00 %
09.02.2022 14:42 10,8 C 10,6 C 7,2 C 81 % 1025,2 hPa 0,0 l/m 0 min 0 min 113 W/m 22,5 km/h (4 Bft) 97,87 %
09.02.2022 14:44 10,8 C 10,6 C 7,2 C 81 % 1025,2 hPa 0,0 l/m 0 min 0 min 92 W/m 22,5 km/h (4 Bft) 97,87 %
09.02.2022 14:46 10,7 C 10,0 C 7,2 C 81 % 1025,3 hPa 0,0 l/m 0 min 0 min 74 W/m 25,7 km/h (4 Bft) 97,87 %
09.02.2022 14:48 10,7 C 10,0 C 7,2 C 81 % 1025,2 hPa 0,0 l/m 0 min 0 min 66 W/m 22,5 km/h (4 Bft) 95,74 %
09.02.2022 14:50 10,6 C 10,0 C 7,2 C 81 % 1025,2 hPa 0,0 l/m 0 min 0 min 60 W/m 25,7 km/h (4 Bft) 97,83 %
09.02.2022 14:52 10,6 C 10,0 C 6,7 C 82 % 1025,2 hPa 0,0 l/m 0 min 0 min 56 W/m 35,4 km/h (5 Bft) 97,87 %
09.02.2022 14:54 10,6 C 10,0 C 6,7 C 82 % 1025,1 hPa 0,0 l/m 0 min 0 min 59 W/m 22,5 km/h (4 Bft) 95,74 %
09.02.2022 14:56 10,6 C 10,0 C 6,7 C 82 % 1025,1 hPa 0,0 l/m 0 min 0 min 78 W/m 22,5 km/h (4 Bft) 97,87 %
09.02.2022 14:58 10,5 C 10,0 C 6,7 C 82 % 1025,1 hPa 0,0 l/m 0 min 0 min 105 W/m 12,9 km/h (3 Bft) 97,87 %
09.02.2022 15:00 10,5 C 10,0 C 6,7 C 82 % 1025,2 hPa 0,0 l/m 0 min 0 min 118 W/m 12,9 km/h (3 Bft) 97,87 %
09.02.2022 15:02 10,5 C 10,6 C 7,2 C 82 % 1025,1 hPa 0,0 l/m 0 min 0 min 123 W/m 12,9 km/h (3 Bft) 97,83 %
09.02.2022 15:04 10,6 C 10,6 C 7,2 C 82 % 1025,2 hPa 0,0 l/m 0 min 0 min 134 W/m 16,1 km/h (3 Bft) 97,87 %
09.02.2022 15:06 10,6 C 10,6 C 7,2 C 82 % 1025,2 hPa 0,0 l/m 2 min 0 min 160 W/m 12,9 km/h (3 Bft) 93,62 %
09.02.2022 15:08 10,6 C 11,1 C 7,2 C 82 % 1025,2 hPa 0,0 l/m 2 min 0 min 160 W/m 29,0 km/h (5 Bft) 97,87 %
09.02.2022 15:10 10,6 C 11,1 C 7,2 C 82 % 1025,2 hPa 0,0 l/m 2 min 0 min 152 W/m 12,9 km/h (3 Bft) 97,87 %
09.02.2022 15:12 10,7 C 11,1 C 7,2 C 82 % 1025,2 hPa 0,0 l/m 0 min 0 min 145 W/m 22,5 km/h (4 Bft) 95,74 %
09.02.2022 15:14 10,7 C 11,1 C 7,2 C 82 % 1025,1 hPa 0,0 l/m 0 min 0 min 140 W/m 19,3 km/h (3 Bft) 95,65 %
09.02.2022 15:16 10,7 C 10,6 C 7,2 C 81 % 1025,1 hPa 0,0 l/m 0 min 0 min 125 W/m 25,7 km/h (4 Bft) 95,74 %
09.02.2022 15:18 10,7 C 10,6 C 7,2 C 81 % 1025,2 hPa 0,0 l/m 0 min 0 min 115 W/m 19,3 km/h (3 Bft) 95,74 %
09.02.2022 15:20 10,7 C 10,6 C 7,2 C 81 % 1025,1 hPa 0,0 l/m 0 min 0 min 105 W/m 29,0 km/h (5 Bft) 95,74 %
09.02.2022 15:22 10,7 C 10,6 C 7,2 C 81 % 1025,1 hPa 0,0 l/m 0 min 0 min 100 W/m 19,3 km/h (3 Bft) 95,74 %
09.02.2022 15:24 10,7 C 10,6 C 7,2 C 81 % 1025,1 hPa 0,0 l/m 0 min 0 min 90 W/m 12,9 km/h (3 Bft) 95,74 %
09.02.2022 15:26 10,7 C 10,6 C 7,2 C 81 % 1025,2 hPa 0,0 l/m 0 min 0 min 86 W/m 19,3 km/h (3 Bft) 95,65 %
09.02.2022 15:28 10,7 C 10,0 C 7,2 C 81 % 1025,1 hPa 0,0 l/m 0 min 0 min 77 W/m 22,5 km/h (4 Bft) 95,74 %
09.02.2022 15:30 10,7 C 10,0 C 7,2 C 81 % 1025,1 hPa 0,0 l/m 0 min 0 min 73 W/m 19,3 km/h (3 Bft) 95,74 %
09.02.2022 15:32 10,6 C 10,0 C 7,2 C 81 % 1025,2 hPa 0,0 l/m 0 min 0 min 74 W/m 19,3 km/h (3 Bft) 91,49 %
09.02.2022 15:34 10,6 C 10,0 C 7,2 C 81 % 1025,1 hPa 0,0 l/m 0 min 0 min 67 W/m 9,7 km/h (2 Bft) 97,87 %
09.02.2022 15:36 10,6 C 10,0 C 7,2 C 81 % 1025,2 hPa 0,0 l/m 0 min 0 min 66 W/m 22,5 km/h (4 Bft) 97,83 %
09.02.2022 15:38 10,6 C 10,0 C 7,2 C 81 % 1025,2 hPa 0,0 l/m 0 min 0 min 65 W/m 12,9 km/h (3 Bft) 95,74 %
09.02.2022 15:40 10,6 C 10,0 C 7,2 C 82 % 1025,1 hPa 0,0 l/m 0 min 0 min 62 W/m 12,9 km/h (3 Bft) 95,74 %
09.02.2022 15:42 10,6 C 10,0 C 7,2 C 82 % 1025,1 hPa 0,0 l/m 0 min 0 min 57 W/m 6,4 km/h (2 Bft) 97,87 %
09.02.2022 15:44 10,6 C 10,0 C 7,2 C 82 % 1025,1 hPa 0,0 l/m 0 min 0 min 54 W/m 6,4 km/h (2 Bft) 97,87 %
09.02.2022 15:46 10,6 C 10,0 C 6,7 C 82 % 1025,2 hPa 0,0 l/m 0 min 0 min 53 W/m 6,4 km/h (2 Bft) 95,74 %
09.02.2022 15:48 10,6 C 10,0 C 6,7 C 82 % 1025,1 hPa 0,0 l/m 0 min 0 min 55 W/m 9,7 km/h (2 Bft) 100,00 %
09.02.2022 15:50 10,6 C 10,0 C 6,7 C 82 % 1025,1 hPa 0,0 l/m 0 min 0 min 68 W/m 6,4 km/h (2 Bft) 97,83 %
09.02.2022 15:52 10,6 C 10,0 C 6,7 C 82 % 1025,1 hPa 0,0 l/m 0 min 0 min 69 W/m 6,4 km/h (2 Bft) 100,00 %
09.02.2022 15:54 10,6 C 10,0 C 6,7 C 82 % 1025,1 hPa 0,0 l/m 0 min 0 min 67 W/m 6,4 km/h (2 Bft) 100,00 %
09.02.2022 15:56 10,6 C 10,0 C 6,7 C 82 % 1025,1 hPa 0,0 l/m 0 min 0 min 68 W/m 9,7 km/h (2 Bft) 97,87 %
09.02.2022 15:58 10,6 C 10,0 C 6,7 C 82 % 1025,1 hPa 0,0 l/m 0 min 0 min 67 W/m 6,4 km/h (2 Bft) 100,00 %
09.02.2022 16:00 10,6 C 10,0 C 6,7 C 82 % 1025,1 hPa 0,0 l/m 0 min 0 min 66 W/m 9,7 km/h (2 Bft) 100,00 %
09.02.2022 16:02 10,6 C 10,0 C 6,7 C 82 % 1025,1 hPa 0,0 l/m 0 min 0 min 63 W/m 12,9 km/h (3 Bft) 100,00 %
09.02.2022 16:04 10,6 C 10,0 C 6,7 C 82 % 1025,0 hPa 0,0 l/m 0 min 0 min 62 W/m 12,9 km/h (3 Bft) 97,87 %
09.02.2022 16:06 10,6 C 10,0 C 6,7 C 82 % 1025,1 hPa 0,0 l/m 0 min 0 min 61 W/m 3,2 km/h (1 Bft) 97,87 %
09.02.2022 16:08 10,6 C 10,0 C 6,7 C 82 % 1025,1 hPa 0,0 l/m 0 min 0 min 62 W/m 12,9 km/h (3 Bft) 97,87 %
09.02.2022 16:10 10,6 C 10,0 C 6,7 C 82 % 1025,1 hPa 0,0 l/m 0 min 0 min 62 W/m 16,1 km/h (3 Bft) 95,74 %
09.02.2022 16:12 10,6 C 10,0 C 6,7 C 81 % 1025,0 hPa 0,0 l/m 0 min 0 min 59 W/m 12,9 km/h (3 Bft) 97,83 %
09.02.2022 16:14 10,6 C 10,0 C 6,7 C 82 % 1025,0 hPa 0,0 l/m 0 min 0 min 60 W/m 12,9 km/h (3 Bft) 97,87 %
09.02.2022 16:16 10,6 C 10,0 C 6,7 C 82 % 1025,0 hPa 0,0 l/m 0 min 0 min 60 W/m 12,9 km/h (3 Bft) 97,87 %
09.02.2022 16:18 10,6 C 10,0 C 6,7 C 82 % 1025,0 hPa 0,0 l/m 0 min 0 min 61 W/m 16,1 km/h (3 Bft) 97,87 %
09.02.2022 16:20 10,6 C 10,0 C 6,7 C 82 % 1025,0 hPa 0,0 l/m 0 min 0 min 64 W/m 12,9 km/h (3 Bft) 97,87 %
09.02.2022 16:22 10,6 C 10,0 C 6,7 C 82 % 1025,0 hPa 0,0 l/m 0 min 0 min 68 W/m 12,9 km/h (3 Bft) 95,74 %
09.02.2022 16:24 10,6 C 10,0 C 6,7 C 82 % 1025,0 hPa 0,0 l/m 0 min 0 min 65 W/m 16,1 km/h (3 Bft) 97,83 %
09.02.2022 16:26 10,6 C 10,6 C 6,7 C 81 % 1025,0 hPa 0,0 l/m 0 min 0 min 70 W/m 16,1 km/h (3 Bft) 97,87 %
09.02.2022 16:28 10,6 C 10,6 C 6,7 C 81 % 1025,0 hPa 0,0 l/m 0 min 0 min 74 W/m 6,4 km/h (2 Bft) 97,87 %
09.02.2022 16:30 10,6 C 10,6 C 6,7 C 81 % 1025,0 hPa 0,0 l/m 0 min 0 min 70 W/m 12,9 km/h (3 Bft) 97,87 %
09.02.2022 16:32 10,7 C 10,6 C 6,7 C 81 % 1024,9 hPa 0,0 l/m 0 min 0 min 68 W/m 9,7 km/h (2 Bft) 98,11 %
09.02.2022 16:34 10,7 C 10,6 C 6,7 C 81 % 1024,9 hPa 0,0 l/m 2 min 0 min 73 W/m 6,4 km/h (2 Bft) 97,87 %
09.02.2022 16:36 10,7 C 10,6 C 6,7 C 81 % 1024,9 hPa 0,0 l/m 2 min 0 min 74 W/m 6,4 km/h (2 Bft) 95,74 %
09.02.2022 16:38 10,7 C 10,6 C 7,2 C 81 % 1024,9 hPa 0,0 l/m 2 min 0 min 70 W/m 16,1 km/h (3 Bft) 95,74 %
09.02.2022 16:40 10,7 C 10,6 C 7,2 C 81 % 1024,8 hPa 0,0 l/m 0 min 0 min 63 W/m 9,7 km/h (2 Bft) 97,87 %
09.02.2022 16:42 10,7 C 10,6 C 7,2 C 81 % 1024,8 hPa 0,0 l/m 0 min 0 min 56 W/m 12,9 km/h (3 Bft) 93,48 %
09.02.2022 16:44 10,8 C 10,6 C 6,7 C 81 % 1024,8 hPa 0,0 l/m 0 min 0 min 43 W/m 6,4 km/h (2 Bft) 97,87 %
09.02.2022 16:46 10,8 C 10,6 C 6,7 C 81 % 1024,8 hPa 0,0 l/m 0 min 0 min 31 W/m 6,4 km/h (2 Bft) 95,74 %
09.02.2022 16:48 10,8 C 10,0 C 6,7 C 81 % 1024,8 hPa 0,0 l/m 0 min 0 min 26 W/m 22,5 km/h (4 Bft) 97,87 %
09.02.2022 16:50 10,7 C 10,0 C 6,7 C 80 % 1024,8 hPa 0,0 l/m 0 min 0 min 23 W/m 12,9 km/h (3 Bft) 95,74 %
09.02.2022 16:52 10,7 C 10,0 C 6,7 C 80 % 1024,8 hPa 0,0 l/m 0 min 0 min 21 W/m 9,7 km/h (2 Bft) 100,00 %
09.02.2022 16:54 10,7 C 10,0 C 6,7 C 80 % 1024,8 hPa 0,0 l/m 0 min 0 min 20 W/m 16,1 km/h (3 Bft) 100,00 %
09.02.2022 16:56 10,7 C 10,0 C 6,7 C 80 % 1024,7 hPa 0,0 l/m 0 min 0 min 19 W/m 12,9 km/h (3 Bft) 100,00 %
09.02.2022 16:58 10,7 C 10,0 C 6,7 C 80 % 1024,8 hPa 0,0 l/m 0 min 0 min 19 W/m 16,1 km/h (3 Bft) 100,00 %
09.02.2022 17:00 10,6 C 10,0 C 6,7 C 80 % 1024,8 hPa 0,0 l/m 0 min 0 min 19 W/m 16,1 km/h (3 Bft) 95,74 %
09.02.2022 17:02 10,6 C 10,0 C 6,7 C 80 % 1024,8 hPa 0,0 l/m 0 min 0 min 19 W/m 12,9 km/h (3 Bft) 100,00 %
09.02.2022 17:04 10,6 C 9,4 C 6,7 C 80 % 1024,8 hPa 0,0 l/m 0 min 0 min 18 W/m 12,9 km/h (3 Bft) 100,00 %
09.02.2022 17:06 10,6 C 9,4 C 6,7 C 80 % 1024,8 hPa 0,0 l/m 0 min 0 min 17 W/m 16,1 km/h (3 Bft) 100,00 %
09.02.2022 17:08 10,5 C 9,4 C 6,1 C 80 % 1024,8 hPa 0,0 l/m 0 min 0 min 16 W/m 12,9 km/h (3 Bft) 97,87 %
09.02.2022 17:10 10,4 C 9,4 C 6,1 C 81 % 1024,8 hPa 0,0 l/m 0 min 0 min 15 W/m 12,9 km/h (3 Bft) 100,00 %
09.02.2022 17:12 10,4 C 9,4 C 6,1 C 81 % 1024,8 hPa 0,0 l/m 0 min 0 min 14 W/m 9,7 km/h (2 Bft) 100,00 %
09.02.2022 17:14 10,4 C 9,4 C 6,1 C 81 % 1024,8 hPa 0,0 l/m 0 min 0 min 14 W/m 6,4 km/h (2 Bft) 100,00 %
09.02.2022 17:16 10,4 C 9,4 C 6,1 C 81 % 1024,8 hPa 0,0 l/m 0 min 0 min 14 W/m 3,2 km/h (1 Bft) 97,87 %
09.02.2022 17:18 10,3 C 8,9 C 6,1 C 81 % 1024,7 hPa 0,0 l/m 0 min 0 min 14 W/m 6,4 km/h (2 Bft) 97,87 %
09.02.2022 17:20 10,3 C 8,9 C 5,6 C 81 % 1024,7 hPa 0,0 l/m 0 min 0 min 12 W/m 3,2 km/h (1 Bft) 97,87 %
09.02.2022 17:22 10,2 C 8,9 C 5,6 C 81 % 1024,8 hPa 0,0 l/m 0 min 0 min 12 W/m 3,2 km/h (1 Bft) 100,00 %
09.02.2022 17:24 10,2 C 8,9 C 5,6 C 82 % 1024,8 hPa 0,0 l/m 0 min 0 min 12 W/m 3,2 km/h (1 Bft) 97,87 %
09.02.2022 17:26 10,2 C 8,9 C 5,6 C 82 % 1024,7 hPa 0,0 l/m 0 min 0 min 11 W/m 3,2 km/h (1 Bft) 97,87 %
09.02.2022 17:28 10,2 C 8,9 C 5,6 C 82 % 1024,7 hPa 0,0 l/m 0 min 0 min 9 W/m 3,2 km/h (1 Bft) 97,87 %
09.02.2022 17:30 10,1 C 8,9 C 5,6 C 82 % 1024,7 hPa 0,0 l/m 0 min 0 min 8 W/m 3,2 km/h (1 Bft) 97,87 %
09.02.2022 17:32 10,1 C 8,9 C 5,6 C 82 % 1024,8 hPa 0,0 l/m 0 min 0 min 7 W/m 3,2 km/h (1 Bft) 93,62 %
09.02.2022 17:34 10,1 C 8,9 C 5,6 C 82 % 1024,7 hPa 0,0 l/m 0 min 0 min 6 W/m 6,4 km/h (2 Bft) 95,74 %
09.02.2022 17:36 10,1 C 8,9 C 5,6 C 82 % 1024,7 hPa 0,0 l/m 0 min 0 min 5 W/m 3,2 km/h (1 Bft) 95,74 %
09.02.2022 17:38 10,0 C 8,3 C 5,6 C 82 % 1024,7 hPa 0,0 l/m 0 min 0 min 5 W/m 3,2 km/h (1 Bft) 95,74 %
09.02.2022 17:40 9,9 C 8,3 C 5,6 C 82 % 1024,7 hPa 0,0 l/m 0 min 0 min 2 W/m 0,0 km/h (0 Bft) 93,62 %
09.02.2022 17:42 9,9 C 8,3 C 5,0 C 83 % 1024,7 hPa 0,0 l/m 0 min 0 min 0 W/m 6,4 km/h (2 Bft) 95,74 %
09.02.2022 17:44 9,9 C 8,3 C 5,0 C 83 % 1024,7 hPa 0,0 l/m 0 min 0 min 0 W/m 3,2 km/h (1 Bft) 91,30 %
09.02.2022 17:46 9,8 C 8,3 C 5,0 C 83 % 1024,7 hPa 0,0 l/m 0 min 0 min 0 W/m 6,4 km/h (2 Bft) 95,74 %
09.02.2022 17:48 9,8 C 8,3 C 5,0 C 83 % 1024,7 hPa 0,0 l/m 0 min 0 min 0 W/m 0,0 km/h (0 Bft) 95,74 %
09.02.2022 17:50 9,8 C 8,3 C 5,0 C 83 % 1024,7 hPa 0,0 l/m 0 min 0 min 0 W/m 3,2 km/h (1 Bft) 95,74 %
09.02.2022 17:52 9,7 C 8,3 C 5,6 C 83 % 1024,7 hPa 0,0 l/m 0 min 0 min 0 W/m 3,2 km/h (1 Bft) 97,87 %
09.02.2022 17:54 9,7 C 8,3 C 5,6 C 83 % 1024,7 hPa 0,0 l/m 0 min 0 min 0 W/m 3,2 km/h (1 Bft) 97,87 %
09.02.2022 17:56 9,7 C 8,3 C 5,6 C 83 % 1024,7 hPa 0,0 l/m 0 min 0 min 0 W/m 6,4 km/h (2 Bft) 97,83 %
09.02.2022 17:58 9,7 C 8,9 C 5,6 C 83 % 1024,8 hPa 0,0 l/m 0 min 0 min 0 W/m 6,4 km/h (2 Bft) 97,87 %
09.02.2022 18:00 9,7 C 8,9 C 5,6 C 84 % 1024,8 hPa 0,0 l/m 0 min 0 min 0 W/m 3,2 km/h (1 Bft) 97,87 %
09.02.2022 18:02 9,6 C 8,9 C 5,6 C 84 % 1024,7 hPa 0,0 l/m 0 min 0 min 0 W/m 6,4 km/h (2 Bft) 95,74 %
09.02.2022 18:04 9,6 C 8,9 C 5,6 C 84 % 1024,7 hPa 0,0 l/m 0 min 0 min 0 W/m 6,4 km/h (2 Bft) 97,87 %
09.02.2022 18:08 9,6 C 8,9 C 5,6 C 84 % 1024,7 hPa 0,0 l/m 0 min 0 min 0 W/m 9,7 km/h (2 Bft) 95,70 %
09.02.2022 18:10 9,6 C 8,9 C 5,6 C 84 % 1024,7 hPa 0,0 l/m 0 min 0 min 0 W/m 6,4 km/h (2 Bft) 97,87 %
09.02.2022 18:12 9,6 C 8,9 C 5,6 C 84 % 1024,7 hPa 0,0 l/m 0 min 0 min 0 W/m 6,4 km/h (2 Bft) 97,87 %
09.02.2022 18:14 9,6 C 8,9 C 5,6 C 84 % 1024,7 hPa 0,0 l/m 0 min 0 min 0 W/m 6,4 km/h (2 Bft) 95,74 %
09.02.2022 18:16 9,6 C 8,9 C 5,6 C 84 % 1024,7 hPa 0,0 l/m 0 min 0 min 0 W/m 3,2 km/h (1 Bft) 97,87 %
09.02.2022 18:18 9,6 C 8,9 C 5,6 C 84 % 1024,7 hPa 0,0 l/m 0 min 0 min 0 W/m 3,2 km/h (1 Bft) 97,87 %
09.02.2022 18:20 9,6 C 8,9 C 5,6 C 84 % 1024,8 hPa 0,0 l/m 0 min 0 min 0 W/m 3,2 km/h (1 Bft) 97,83 %
09.02.2022 18:22 9,6 C 8,9 C 5,6 C 84 % 1024,8 hPa 0,0 l/m 0 min 0 min 0 W/m 0,0 km/h (0 Bft) 100,00 %
09.02.2022 18:24 9,6 C 8,9 C 5,6 C 84 % 1024,8 hPa 0,0 l/m 0 min 0 min 0 W/m 0,0 km/h (0 Bft) 97,87 %
09.02.2022 18:26 9,6 C 8,3 C 5,6 C 84 % 1024,8 hPa 0,0 l/m 0 min 0 min 0 W/m 0,0 km/h (0 Bft) 100,00 %
09.02.2022 18:28 9,6 C 8,3 C 5,6 C 84 % 1024,8 hPa 0,0 l/m 0 min 0 min 0 W/m 3,2 km/h (1 Bft) 91,49 %
09.02.2022 18:30 9,6 C 8,3 C 5,6 C 84 % 1024,8 hPa 0,0 l/m 0 min 0 min 0 W/m 0,0 km/h (0 Bft) 97,87 %
09.02.2022 18:32 9,6 C 8,3 C 5,6 C 84 % 1024,8 hPa 0,0 l/m 0 min 0 min 0 W/m 0,0 km/h (0 Bft) 97,87 %
09.02.2022 18:34 9,6 C 8,3 C 5,6 C 84 % 1024,8 hPa 0,0 l/m 0 min 0 min 0 W/m 0,0 km/h (0 Bft) 97,87 %
09.02.2022 18:36 9,6 C 8,3 C 5,0 C 84 % 1024,8 hPa 0,0 l/m 0 min 0 min 0 W/m 0,0 km/h (0 Bft) 97,87 %
09.02.2022 18:38 9,6 C 8,3 C 5,0 C 84 % 1024,8 hPa 0,0 l/m 0 min 0 min 0 W/m 0,0 km/h (0 Bft) 95,74 %
09.02.2022 18:40 9,5 C 8,9 C 5,6 C 85 % 1024,8 hPa 0,0 l/m 0 min 0 min 0 W/m 0,0 km/h (0 Bft) 97,87 %
09.02.2022 18:42 9,5 C 8,9 C 5,0 C 85 % 1024,8 hPa 0,0 l/m 0 min 0 min 0 W/m 0,0 km/h (0 Bft) 97,87 %
09.02.2022 18:44 9,5 C 8,9 C 5,0 C 85 % 1024,8 hPa 0,0 l/m 0 min 0 min 0 W/m 0,0 km/h (0 Bft) 97,83 %
09.02.2022 18:46 9,5 C 8,3 C 5,0 C 85 % 1024,8 hPa 0,0 l/m 0 min 0 min 0 W/m 0,0 km/h (0 Bft) 97,87 %
09.02.2022 18:48 9,5 C 8,9 C 5,0 C 85 % 1024,8 hPa 0,0 l/m 0 min 0 min 0 W/m 0,0 km/h (0 Bft) 95,74 %
09.02.2022 18:50 9,5 C 8,9 C 5,6 C 85 % 1024,8 hPa 0,0 l/m 0 min 0 min 0 W/m 3,2 km/h (1 Bft) 97,87 %
09.02.2022 18:52 9,5 C 8,9 C 5,6 C 85 % 1024,8 hPa 0,0 l/m 0 min 0 min 0 W/m 0,0 km/h (0 Bft) 97,87 %
09.02.2022 18:54 9,5 C 8,9 C 5,6 C 85 % 1024,8 hPa 0,0 l/m 0 min 0 min 0 W/m 3,2 km/h (1 Bft) 97,87 %
09.02.2022 18:56 9,5 C 8,9 C 5,6 C 85 % 1024,7 hPa 0,0 l/m 0 min 0 min 0 W/m 3,2 km/h (1 Bft) 97,83 %
09.02.2022 18:58 9,5 C 8,9 C 5,6 C 85 % 1024,7 hPa 0,0 l/m 0 min 0 min 0 W/m 3,2 km/h (1 Bft) 95,74 %
09.02.2022 19:00 9,5 C 8,9 C 5,6 C 85 % 1024,7 hPa 0,0 l/m 0 min 0 min 0 W/m 3,2 km/h (1 Bft) 97,87 %
09.02.2022 19:02 9,4 C 8,9 C 5,6 C 85 % 1024,6 hPa 0,0 l/m 0 min 0 min 0 W/m 3,2 km/h (1 Bft) 93,75 %
09.02.2022 19:04 9,4 C 8,9 C 5,6 C 85 % 1024,7 hPa 0,0 l/m 0 min 0 min 0 W/m 0,0 km/h (0 Bft) 97,87 %
09.02.2022 19:06 9,4 C 8,9 C 5,6 C 85 % 1024,7 hPa 0,0 l/m 0 min 0 min 0 W/m 0,0 km/h (0 Bft) 97,83 %
09.02.2022 19:08 9,4 C 8,3 C 5,6 C 85 % 1024,6 hPa 0,0 l/m 0 min 0 min 0 W/m 0,0 km/h (0 Bft) 100,00 %
09.02.2022 19:10 9,4 C 8,3 C 5,0 C 85 % 1024,6 hPa 0,0 l/m 0 min 0 min 0 W/m 0,0 km/h (0 Bft) 100,00 %
09.02.2022 19:12 9,4 C 8,3 C 5,0 C 85 % 1024,6 hPa 0,0 l/m 0 min 0 min 0 W/m 0,0 km/h (0 Bft) 97,87 %
09.02.2022 19:14 9,4 C 8,3 C 5,0 C 85 % 1024,5 hPa 0,0 l/m 0 min 0 min 0 W/m 0,0 km/h (0 Bft) 95,74 %
09.02.2022 19:16 9,4 C 7,8 C 5,0 C 85 % 1024,5 hPa 0,0 l/m 0 min 0 min 0 W/m 0,0 km/h (0 Bft) 93,62 %
09.02.2022 19:18 9,4 C 7,8 C 5,0 C 85 % 1024,5 hPa 0,0 l/m 0 min 0 min 0 W/m 3,2 km/h (1 Bft) 97,83 %
09.02.2022 19:20 9,4 C 7,8 C 4,4 C 85 % 1024,5 hPa 0,0 l/m 0 min 0 min 0 W/m 0,0 km/h (0 Bft) 97,87 %
09.02.2022 19:22 9,4 C 7,8 C 4,4 C 85 % 1024,5 hPa 0,0 l/m 0 min 0 min 0 W/m 0,0 km/h (0 Bft) 97,87 %
09.02.2022 19:24 9,3 C 7,8 C 4,4 C 85 % 1024,6 hPa 0,0 l/m 0 min 0 min 0 W/m 0,0 km/h (0 Bft) 97,87 %
09.02.2022 19:26 9,3 C 7,8 C 4,4 C 85 % 1024,5 hPa 0,0 l/m 0 min 0 min 0 W/m 0,0 km/h (0 Bft) 95,74 %
09.02.2022 19:28 9,3 C 7,8 C 4,4 C 85 % 1024,4 hPa 0,0 l/m 0 min 0 min 0 W/m 0,0 km/h (0 Bft) 97,87 %
09.02.2022 19:30 9,3 C 7,8 C 4,4 C 85 % 1024,5 hPa 0,0 l/m 0 min 0 min 0 W/m 0,0 km/h (0 Bft) 95,83 %
09.02.2022 19:32 9,3 C 7,8 C 3,9 C 85 % 1024,4 hPa 0,0 l/m 0 min 0 min 0 W/m 0,0 km/h (0 Bft) 97,83 %
09.02.2022 19:34 9,2 C 7,2 C 3,9 C 85 % 1024,4 hPa 0,0 l/m 0 min 0 min 0 W/m 0,0 km/h (0 Bft) 97,87 %
09.02.2022 19:36 9,2 C 7,2 C 3,9 C 85 % 1024,4 hPa 0,0 l/m 0 min 0 min 0 W/m 0,0 km/h (0 Bft) 97,87 %
09.02.2022 19:38 9,2 C 7,2 C 3,3 C 85 % 1024,4 hPa 0,0 l/m 0 min 0 min 0 W/m 0,0 km/h (0 Bft) 97,87 %
09.02.2022 19:40 9,1 C 7,2 C 3,3 C 85 % 1024,4 hPa 0,0 l/m 0 min 0 min 0 W/m 0,0 km/h (0 Bft) 97,87 %
09.02.2022 19:42 9,1 C 7,2 C 3,3 C 85 % 1024,3 hPa 0,0 l/m 0 min 0 min 0 W/m 0,0 km/h (0 Bft) 100,00 %
09.02.2022 19:44 9,1 C 7,2 C 3,3 C 85 % 1024,3 hPa 0,0 l/m 0 min 0 min 0 W/m 0,0 km/h (0 Bft) 100,00 %
09.02.2022 19:46 9,0 C 6,7 C 3,3 C 85 % 1024,3 hPa 0,0 l/m 0 min 0 min 0 W/m 0,0 km/h (0 Bft) 100,00 %
09.02.2022 19:48 9,0 C 6,7 C 2,8 C 85 % 1024,2 hPa 0,0 l/m 0 min 0 min 0 W/m 0,0 km/h (0 Bft) 100,00 %
09.02.2022 19:50 8,9 C 6,7 C 2,8 C 85 % 1024,3 hPa 0,0 l/m 0 min 0 min 0 W/m 0,0 km/h (0 Bft) 100,00 %
09.02.2022 19:52 8,9 C 6,1 C 2,8 C 85 % 1024,2 hPa 0,0 l/m 0 min 0 min 0 W/m 0,0 km/h (0 Bft) 100,00 %
09.02.2022 19:54 8,8 C 6,1 C 2,8 C 85 % 1024,2 hPa 0,0 l/m 0 min 0 min 0 W/m 0,0 km/h (0 Bft) 100,00 %
09.02.2022 19:56 8,8 C 6,1 C 2,8 C 85 % 1024,2 hPa 0,0 l/m 0 min 0 min 0 W/m 0,0 km/h (0 Bft) 97,87 %
09.02.2022 19:58 8,8 C 6,1 C 2,8 C 85 % 1024,2 hPa 0,0 l/m 0 min 0 min 0 W/m 0,0 km/h (0 Bft) 100,00 %
09.02.2022 20:00 8,7 C 6,1 C 2,8 C 85 % 1024,3 hPa 0,0 l/m 0 min 0 min 0 W/m 0,0 km/h (0 Bft) 100,00 %
09.02.2022 20:02 8,6 C 6,1 C 2,8 C 85 % 1024,3 hPa 0,0 l/m 0 min 0 min 0 W/m 0,0 km/h (0 Bft) 100,00 %
09.02.2022 20:04 8,6 C 6,1 C 2,8 C 85 % 1024,2 hPa 0,0 l/m 0 min 0 min 0 W/m 0,0 km/h (0 Bft) 100,00 %
09.02.2022 20:06 8,5 C 6,1 C 2,8 C 85 % 1024,4 hPa 0,0 l/m 0 min 0 min 0 W/m 0,0 km/h (0 Bft) 100,00 %
09.02.2022 20:08 8,4 C 6,1 C 2,8 C 85 % 1024,3 hPa 0,0 l/m 0 min 0 min 0 W/m 0,0 km/h (0 Bft) 100,00 %
09.02.2022 20:10 8,4 C 6,1 C 2,8 C 85 % 1024,3 hPa 0,0 l/m 0 min 0 min 0 W/m 0,0 km/h (0 Bft) 100,00 %
09.02.2022 20:12 8,3 C 6,1 C 2,8 C 85 % 1024,3 hPa 0,0 l/m 0 min 0 min 0 W/m 0,0 km/h (0 Bft) 100,00 %
09.02.2022 20:14 8,3 C 6,1 C 2,8 C 86 % 1024,3 hPa 0,0 l/m 0 min 0 min 0 W/m 0,0 km/h (0 Bft) 100,00 %
09.02.2022 20:16 8,2 C 6,1 C 2,8 C 86 % 1024,3 hPa 0,0 l/m 0 min 0 min 0 W/m 0,0 km/h (0 Bft) 100,00 %
09.02.2022 20:18 8,2 C 6,1 C 2,8 C 86 % 1024,2 hPa 0,0 l/m 0 min 0 min 0 W/m 0,0 km/h (0 Bft) 100,00 %
09.02.2022 20:20 8,1 C 6,1 C 2,8 C 86 % 1024,2 hPa 0,0 l/m 0 min 0 min 0 W/m 0,0 km/h (0 Bft) 100,00 %
09.02.2022 20:22 8,1 C 6,1 C 2,8 C 86 % 1024,1 hPa 0,0 l/m 0 min 0 min 0 W/m 0,0 km/h (0 Bft) 100,00 %
09.02.2022 20:24 8,1 C 6,7 C 3,3 C 87 % 1024,1 hPa 0,0 l/m 0 min 0 min 0 W/m 0,0 km/h (0 Bft) 100,00 %
09.02.2022 20:26 8,0 C 6,7 C 3,3 C 87 % 1024,1 hPa 0,0 l/m 0 min 0 min 0 W/m 3,2 km/h (1 Bft) 100,00 %
09.02.2022 20:28 7,9 C 6,7 C 3,3 C 87 % 1024,1 hPa 0,0 l/m 0 min 0 min 0 W/m 3,2 km/h (1 Bft) 100,00 %
09.02.2022 20:30 7,9 C 6,7 C 3,3 C 88 % 1024,1 hPa 0,0 l/m 0 min 0 min 0 W/m 3,2 km/h (1 Bft) 97,87 %
09.02.2022 20:32 7,9 C 6,7 C 3,3 C 88 % 1024,1 hPa 0,0 l/m 0 min 0 min 0 W/m 3,2 km/h (1 Bft) 95,65 %
09.02.2022 20:34 7,9 C 6,7 C 3,3 C 88 % 1024,1 hPa 0,0 l/m 0 min 0 min 0 W/m 0,0 km/h (0 Bft) 100,00 %
09.02.2022 20:36 7,8 C 6,7 C 3,3 C 88 % 1024,1 hPa 0,0 l/m 0 min 0 min 0 W/m 3,2 km/h (1 Bft) 100,00 %
09.02.2022 20:38 7,8 C 6,7 C 3,3 C 88 % 1024,1 hPa 0,0 l/m 0 min 0 min 0 W/m 3,2 km/h (1 Bft) 100,00 %
09.02.2022 20:40 7,8 C 6,7 C 3,3 C 89 % 1024,0 hPa 0,0 l/m 0 min 0 min 0 W/m 0,0 km/h (0 Bft) 95,74 %
09.02.2022 20:42 7,8 C 6,7 C 3,3 C 89 % 1024,0 hPa 0,0 l/m 0 min 0 min 0 W/m 0,0 km/h (0 Bft) 91,49 %
09.02.2022 20:44 7,7 C 6,1 C 2,8 C 89 % 1024,0 hPa 0,0 l/m 0 min 0 min 0 W/m 0,0 km/h (0 Bft) 93,48 %
09.02.2022 20:46 7,7 C 6,1 C 2,8 C 89 % 1024,0 hPa 0,0 l/m 0 min 0 min 0 W/m 3,2 km/h (1 Bft) 93,62 %
09.02.2022 20:48 7,7 C 6,1 C 3,3 C 89 % 1024,0 hPa 0,0 l/m 0 min 0 min 0 W/m 6,4 km/h (2 Bft) 95,74 %
09.02.2022 20:50 7,7 C 6,1 C 3,3 C 89 % 1024,0 hPa 0,0 l/m 0 min 0 min 0 W/m 12,9 km/h (3 Bft) 95,74 %
09.02.2022 20:52 7,6 C 6,1 C 3,3 C 89 % 1024,0 hPa 0,0 l/m 0 min 0 min 0 W/m 6,4 km/h (2 Bft) 95,74 %
09.02.2022 20:54 7,6 C 6,1 C 3,3 C 89 % 1024,0 hPa 0,0 l/m 0 min 0 min 0 W/m 6,4 km/h (2 Bft) 95,74 %
09.02.2022 20:56 7,6 C 6,1 C 3,3 C 89 % 1024,0 hPa 0,0 l/m 0 min 0 min 0 W/m 6,4 km/h (2 Bft) 95,65 %
09.02.2022 20:58 7,5 C 6,1 C 3,3 C 89 % 1023,9 hPa 0,0 l/m 0 min 0 min 0 W/m 6,4 km/h (2 Bft) 91,49 %
09.02.2022 21:00 7,5 C 6,1 C 3,3 C 89 % 1023,9 hPa 0,0 l/m 0 min 0 min 0 W/m 6,4 km/h (2 Bft) 91,49 %
09.02.2022 21:02 7,4 C 6,1 C 3,3 C 89 % 1024,0 hPa 0,0 l/m 0 min 0 min 0 W/m 9,7 km/h (2 Bft) 93,62 %
09.02.2022 21:04 7,4 C 6,1 C 3,3 C 90 % 1024,0 hPa 0,0 l/m 0 min 0 min 0 W/m 6,4 km/h (2 Bft) 91,49 %
09.02.2022 21:06 7,4 C 6,1 C 3,3 C 90 % 1023,9 hPa 0,0 l/m 0 min 0 min 0 W/m 6,4 km/h (2 Bft) 93,62 %
09.02.2022 21:08 7,3 C 6,1 C 3,3 C 90 % 1023,9 hPa 0,0 l/m 0 min 0 min 0 W/m 6,4 km/h (2 Bft) 93,48 %
09.02.2022 21:10 7,3 C 6,7 C 3,3 C 90 % 1023,9 hPa 0,0 l/m 0 min 0 min 0 W/m 6,4 km/h (2 Bft) 93,62 %
09.02.2022 21:12 7,3 C 6,7 C 3,9 C 90 % 1023,9 hPa 0,0 l/m 0 min 0 min 0 W/m 9,7 km/h (2 Bft) 91,49 %
09.02.2022 21:14 7,3 C 6,7 C 3,9 C 90 % 1023,8 hPa 0,0 l/m 0 min 0 min 0 W/m 6,4 km/h (2 Bft) 93,62 %
09.02.2022 21:16 7,3 C 6,7 C 3,9 C 90 % 1023,9 hPa 0,0 l/m 0 min 0 min 0 W/m 6,4 km/h (2 Bft) 91,49 %
09.02.2022 21:18 7,3 C 6,7 C 3,9 C 90 % 1023,8 hPa 0,0 l/m 0 min 0 min 0 W/m 6,4 km/h (2 Bft) 93,62 %
09.02.2022 21:20 7,3 C 6,7 C 3,9 C 91 % 1023,9 hPa 0,0 l/m 0 min 0 min 0 W/m 6,4 km/h (2 Bft) 95,65 %
09.02.2022 21:22 7,3 C 6,7 C 3,9 C 90 % 1023,8 hPa 0,0 l/m 0 min 0 min 0 W/m 6,4 km/h (2 Bft) 95,74 %
09.02.2022 21:24 7,3 C 6,7 C 3,9 C 91 % 1023,9 hPa 0,0 l/m 0 min 0 min 0 W/m 6,4 km/h (2 Bft) 95,74 %
09.02.2022 21:26 7,3 C 6,7 C 3,9 C 91 % 1023,9 hPa 0,0 l/m 0 min 0 min 0 W/m 6,4 km/h (2 Bft) 93,62 %
09.02.2022 21:28 7,3 C 6,7 C 3,9 C 91 % 1023,8 hPa 0,0 l/m 0 min 0 min 0 W/m 6,4 km/h (2 Bft) 97,87 %
09.02.2022 21:30 7,3 C 6,7 C 3,9 C 91 % 1023,8 hPa 0,0 l/m 0 min 0 min 0 W/m 12,9 km/h (3 Bft) 97,83 %
09.02.2022 21:32 7,3 C 6,7 C 3,9 C 91 % 1023,8 hPa 0,0 l/m 0 min 0 min 0 W/m 3,2 km/h (1 Bft) 97,87 %
09.02.2022 21:34 7,3 C 6,7 C 3,9 C 91 % 1023,8 hPa 0,0 l/m 0 min 0 min 0 W/m 6,4 km/h (2 Bft) 97,87 %
09.02.2022 21:36 7,3 C 6,7 C 3,9 C 91 % 1023,8 hPa 0,0 l/m 0 min 0 min 0 W/m 6,4 km/h (2 Bft) 97,87 %
09.02.2022 21:38 7,4 C 6,7 C 3,9 C 91 % 1023,8 hPa 0,0 l/m 0 min 0 min 0 W/m 6,4 km/h (2 Bft) 100,00 %
09.02.2022 21:40 7,4 C 6,7 C 3,9 C 91 % 1023,8 hPa 0,0 l/m 0 min 0 min 0 W/m 3,2 km/h (1 Bft) 100,00 %
09.02.2022 21:42 7,4 C 6,7 C 3,9 C 91 % 1023,8 hPa 0,0 l/m 0 min 0 min 0 W/m 9,7 km/h (2 Bft) 100,00 %
09.02.2022 21:44 7,4 C 6,7 C 3,9 C 91 % 1023,7 hPa 0,0 l/m 0 min 0 min 0 W/m 3,2 km/h (1 Bft) 100,00 %
09.02.2022 21:46 7,4 C 6,7 C 3,9 C 91 % 1023,8 hPa 0,0 l/m 0 min 0 min 0 W/m 6,4 km/h (2 Bft) 91,49 %
09.02.2022 21:48 7,4 C 6,7 C 3,9 C 91 % 1023,7 hPa 0,0 l/m 0 min 0 min 0 W/m 6,4 km/h (2 Bft) 100,00 %
09.02.2022 21:50 7,4 C 6,7 C 3,9 C 91 % 1023,7 hPa 0,0 l/m 0 min 0 min 0 W/m 3,2 km/h (1 Bft) 100,00 %
09.02.2022 21:52 7,4 C 6,7 C 3,9 C 91 % 1023,7 hPa 0,0 l/m 0 min 0 min 0 W/m 6,4 km/h (2 Bft) 100,00 %
09.02.2022 21:54 7,4 C 6,7 C 3,9 C 91 % 1023,7 hPa 0,0 l/m 0 min 0 min 0 W/m 6,4 km/h (2 Bft) 100,00 %
09.02.2022 21:56 7,4 C 6,7 C 3,9 C 91 % 1023,7 hPa 0,0 l/m 0 min 0 min 0 W/m 3,2 km/h (1 Bft) 100,00 %
09.02.2022 21:58 7,4 C 6,7 C 3,9 C 91 % 1023,8 hPa 0,0 l/m 0 min 0 min 0 W/m 3,2 km/h (1 Bft) 100,00 %
09.02.2022 22:00 7,4 C 6,7 C 3,9 C 91 % 1023,8 hPa 0,0 l/m 0 min 0 min 0 W/m 3,2 km/h (1 Bft) 100,00 %
09.02.2022 22:02 7,4 C 6,7 C 3,9 C 91 % 1023,8 hPa 0,0 l/m 0 min 0 min 0 W/m 3,2 km/h (1 Bft) 97,87 %
09.02.2022 22:04 7,4 C 6,7 C 3,9 C 91 % 1023,7 hPa 0,0 l/m 0 min 0 min 0 W/m 3,2 km/h (1 Bft) 100,00 %
09.02.2022 22:06 7,4 C 6,7 C 3,9 C 91 % 1023,7 hPa 0,0 l/m 0 min 0 min 0 W/m 3,2 km/h (1 Bft) 100,00 %
09.02.2022 22:08 7,4 C 6,7 C 3,9 C 91 % 1023,7 hPa 0,0 l/m 0 min 0 min 0 W/m 3,2 km/h (1 Bft) 100,00 %
09.02.2022 22:10 7,5 C 6,7 C 3,9 C 91 % 1023,7 hPa 0,0 l/m 0 min 0 min 0 W/m 6,4 km/h (2 Bft) 100,00 %
09.02.2022 22:12 7,4 C 6,7 C 3,9 C 91 % 1023,7 hPa 0,0 l/m 0 min 0 min 0 W/m 3,2 km/h (1 Bft) 100,00 %
09.02.2022 22:14 7,5 C 6,7 C 3,9 C 91 % 1023,7 hPa 0,0 l/m 0 min 0 min 0 W/m 3,2 km/h (1 Bft) 100,00 %
09.02.2022 22:16 7,4 C 6,7 C 3,9 C 91 % 1023,7 hPa 0,0 l/m 0 min 0 min 0 W/m 6,4 km/h (2 Bft) 97,87 %
09.02.2022 22:18 7,4 C 6,7 C 3,9 C 91 % 1023,6 hPa 0,0 l/m 0 min 0 min 0 W/m 6,4 km/h (2 Bft) 100,00 %
09.02.2022 22:20 7,5 C 6,7 C 3,9 C 91 % 1023,6 hPa 0,0 l/m 0 min 0 min 0 W/m 3,2 km/h (1 Bft) 100,00 %
09.02.2022 22:22 7,4 C 6,7 C 3,9 C 91 % 1023,6 hPa 0,0 l/m 0 min 0 min 0 W/m 3,2 km/h (1 Bft) 97,87 %
09.02.2022 22:24 7,4 C 6,7 C 3,9 C 91 % 1023,6 hPa 0,0 l/m 0 min 0 min 0 W/m 3,2 km/h (1 Bft) 100,00 %
09.02.2022 22:26 7,5 C 6,7 C 3,9 C 91 % 1023,6 hPa 0,0 l/m 0 min 0 min 0 W/m 3,2 km/h (1 Bft) 100,00 %
09.02.2022 22:28 7,4 C 6,7 C 3,9 C 91 % 1023,6 hPa 0,0 l/m 0 min 0 min 0 W/m 3,2 km/h (1 Bft) 100,00 %
09.02.2022 22:30 7,4 C 6,7 C 3,9 C 91 % 1023,6 hPa 0,0 l/m 0 min 0 min 0 W/m 3,2 km/h (1 Bft) 100,00 %
09.02.2022 22:32 7,4 C 6,7 C 3,9 C 91 % 1023,5 hPa 0,0 l/m 0 min 0 min 0 W/m 3,2 km/h (1 Bft) 97,87 %
09.02.2022 22:34 7,4 C 6,7 C 3,9 C 91 % 1023,5 hPa 0,0 l/m 0 min 0 min 0 W/m 3,2 km/h (1 Bft) 100,00 %
09.02.2022 22:36 7,4 C 6,7 C 3,9 C 91 % 1023,6 hPa 0,0 l/m 0 min 0 min 0 W/m 6,4 km/h (2 Bft) 100,00 %
09.02.2022 22:38 7,4 C 6,7 C 3,9 C 91 % 1023,5 hPa 0,0 l/m 0 min 0 min 0 W/m 3,2 km/h (1 Bft) 97,87 %
09.02.2022 22:40 7,4 C 6,7 C 3,9 C 91 % 1023,6 hPa 0,0 l/m 0 min 0 min 0 W/m 6,4 km/h (2 Bft) 100,00 %
09.02.2022 22:42 7,4 C 6,7 C 3,9 C 91 % 1023,5 hPa 0,0 l/m 0 min 0 min 0 W/m 3,2 km/h (1 Bft) 97,83 %
09.02.2022 22:44 7,4 C 6,7 C 3,9 C 91 % 1023,6 hPa 0,0 l/m 0 min 0 min 0 W/m 3,2 km/h (1 Bft) 100,00 %
09.02.2022 22:46 7,4 C 6,7 C 3,9 C 91 % 1023,5 hPa 0,0 l/m 0 min 0 min 0 W/m 6,4 km/h (2 Bft) 97,87 %
09.02.2022 22:48 7,4 C 6,7 C 3,9 C 91 % 1023,5 hPa 0,0 l/m 0 min 0 min 0 W/m 3,2 km/h (1 Bft) 97,87 %
09.02.2022 22:50 7,4 C 6,7 C 3,9 C 91 % 1023,4 hPa 0,0 l/m 0 min 0 min 0 W/m 3,2 km/h (1 Bft) 95,24 %
09.02.2022 22:52 7,4 C 6,7 C 3,9 C 91 % 1023,4 hPa 0,0 l/m 0 min 0 min 0 W/m 3,2 km/h (1 Bft) 97,83 %
09.02.2022 22:54 7,4 C 6,7 C 3,9 C 91 % 1023,4 hPa 0,0 l/m 0 min 0 min 0 W/m 3,2 km/h (1 Bft) 97,87 %
09.02.2022 22:56 7,4 C 6,7 C 3,9 C 91 % 1023,4 hPa 0,0 l/m 0 min 0 min 0 W/m 3,2 km/h (1 Bft) 97,87 %
09.02.2022 22:58 7,4 C 6,7 C 3,9 C 91 % 1023,3 hPa 0,0 l/m 0 min 0 min 0 W/m 6,4 km/h (2 Bft) 93,62 %
09.02.2022 23:00 7,4 C 6,7 C 3,9 C 91 % 1023,3 hPa 0,0 l/m 0 min 0 min 0 W/m 6,4 km/h (2 Bft) 95,74 %
09.02.2022 23:02 7,4 C 6,7 C 3,9 C 91 % 1023,2 hPa 0,0 l/m 0 min 0 min 0 W/m 6,4 km/h (2 Bft) 95,74 %
09.02.2022 23:04 7,5 C 6,7 C 3,9 C 91 % 1023,2 hPa 0,0 l/m 0 min 0 min 0 W/m 6,4 km/h (2 Bft) 96,55 %
09.02.2022 23:06 7,5 C 7,2 C 3,9 C 91 % 1023,2 hPa 0,0 l/m 0 min 0 min 0 W/m 9,7 km/h (2 Bft) 94,29 %
09.02.2022 23:08 7,5 C 7,2 C 3,9 C 92 % 1023,2 hPa 0,0 l/m 0 min 0 min 0 W/m 6,4 km/h (2 Bft) 96,61 %
09.02.2022 23:10 7,5 C 7,2 C 4,4 C 92 % 1023,1 hPa 0,0 l/m 0 min 0 min 0 W/m 9,7 km/h (2 Bft) 94,29 %
09.02.2022 23:12 7,6 C 7,2 C 4,4 C 92 % 1023,1 hPa 0,0 l/m 0 min 0 min 0 W/m 6,4 km/h (2 Bft) 95,74 %
09.02.2022 23:14 7,6 C 7,2 C 4,4 C 92 % 1023,1 hPa 0,0 l/m 0 min 0 min 0 W/m 9,7 km/h (2 Bft) 95,74 %
09.02.2022 23:16 7,6 C 7,2 C 4,4 C 92 % 1023,0 hPa 0,0 l/m 0 min 0 min 0 W/m 6,4 km/h (2 Bft) 95,65 %
09.02.2022 23:18 7,6 C 7,2 C 4,4 C 92 % 1023,0 hPa 0,0 l/m 0 min 0 min 0 W/m 9,7 km/h (2 Bft) 95,83 %
09.02.2022 23:20 7,6 C 7,2 C 4,4 C 92 % 1023,0 hPa 0,0 l/m 0 min 0 min 0 W/m 6,4 km/h (2 Bft) 97,87 %
09.02.2022 23:22 7,7 C 7,2 C 4,4 C 92 % 1023,0 hPa 0,0 l/m 0 min 0 min 0 W/m 9,7 km/h (2 Bft) 97,87 %
09.02.2022 23:24 7,7 C 7,2 C 4,4 C 92 % 1023,1 hPa 0,0 l/m 0 min 0 min 0 W/m 9,7 km/h (2 Bft) 97,87 %
09.02.2022 23:26 7,7 C 7,2 C 4,4 C 92 % 1023,1 hPa 0,0 l/m 0 min 0 min 0 W/m 6,4 km/h (2 Bft) 97,87 %
09.02.2022 23:28 7,7 C 7,2 C 4,4 C 92 % 1023,0 hPa 0,0 l/m 0 min 0 min 0 W/m 6,4 km/h (2 Bft) 95,65 %
09.02.2022 23:30 7,7 C 7,2 C 4,4 C 92 % 1023,0 hPa 0,0 l/m 0 min 0 min 0 W/m 6,4 km/h (2 Bft) 95,74 %
09.02.2022 23:32 7,7 C 7,2 C 4,4 C 92 % 1023,0 hPa 0,0 l/m 0 min 0 min 0 W/m 9,7 km/h (2 Bft) 97,87 %
09.02.2022 23:34 7,7 C 7,2 C 4,4 C 92 % 1023,0 hPa 0,0 l/m 0 min 0 min 0 W/m 3,2 km/h (1 Bft) 95,74 %
09.02.2022 23:36 7,8 C 7,2 C 4,4 C 92 % 1023,1 hPa 0,0 l/m 0 min 0 min 0 W/m 3,2 km/h (1 Bft) 95,74 %
09.02.2022 23:38 7,8 C 7,2 C 4,4 C 92 % 1023,0 hPa 0,0 l/m 0 min 0 min 0 W/m 9,7 km/h (2 Bft) 97,87 %
09.02.2022 23:40 7,8 C 7,2 C 4,4 C 92 % 1023,0 hPa 0,0 l/m 0 min 0 min 0 W/m 6,4 km/h (2 Bft) 97,83 %
09.02.2022 23:42 7,8 C 7,2 C 4,4 C 92 % 1023,0 hPa 0,0 l/m 0 min 0 min 0 W/m 6,4 km/h (2 Bft) 97,87 %
09.02.2022 23:44 7,8 C 7,2 C 4,4 C 92 % 1023,0 hPa 0,0 l/m 0 min 0 min 0 W/m 3,2 km/h (1 Bft) 96,00 %
09.02.2022 23:46 7,8 C 7,2 C 4,4 C 92 % 1023,0 hPa 0,0 l/m 0 min 0 min 0 W/m 6,4 km/h (2 Bft) 95,83 %
09.02.2022 23:48 7,8 C 7,2 C 4,4 C 92 % 1023,0 hPa 0,0 l/m 0 min 0 min 0 W/m 3,2 km/h (1 Bft) 95,74 %
09.02.2022 23:50 7,8 C 7,2 C 4,4 C 92 % 1023,0 hPa 0,0 l/m 0 min 0 min 0 W/m 6,4 km/h (2 Bft) 97,67 %
09.02.2022 23:52 7,8 C 7,2 C 4,4 C 92 % 1023,0 hPa 0,0 l/m 0 min 0 min 0 W/m 6,4 km/h (2 Bft) 97,83 %
09.02.2022 23:54 7,8 C 7,2 C 4,4 C 92 % 1023,0 hPa 0,0 l/m 0 min 0 min 0 W/m 3,2 km/h (1 Bft) 95,74 %
09.02.2022 23:56 7,8 C 7,2 C 4,4 C 91 % 1022,9 hPa 0,0 l/m 0 min 0 min 0 W/m 6,4 km/h (2 Bft) 95,74 %
09.02.2022 23:58 7,8 C 7,2 C 4,4 C 91 % 1022,8 hPa 0,0 l/m 0 min 0 min 0 W/m 3,2 km/h (1 Bft) 97,87 %
_ Min-Zeit 21:08 19:52 19:48 16:50 23:58 - - - - 17:40 00:02
Minimum _ 7,3 C 6,1 C 2,8 C 80 % 1022,8 hPa - - - - 0,0 km/h (0 Bft) 10,00 %
_ Max-Zeit 14:34 12:50 12:56 03:42 00:00 00:00 10:00 00:00 12:50 10:52 00:06
Maximum _ 10,9 C 12,2 C 7,8 C 95 % 1028,3 hPa 0,0 l/m 2 min 0 min 285 W/m 38,6 km/h
S-SO (5 Bft)
100,00 %
Durchschnitt _ 9,0 C 8,4 C 5,4 C 89 % 1025,9 hPa #0,0 l/m #46 min. #0 min. 99 W/m 13,1 km/h (3 Bft) 97,20 %
© 2022 W. Hausmann